Wetterdaten: Samstag, 25.12.2021
Datum Zeit Temp. Aussen Temp. o. S. Temp +5cm Feuchte Auss Luftdruck Regen Sonnenschein Regendauer Solar Windben Empfang
25.12.2021 00:00 5,6 C 5,0 C 3,9 C 98 % 1005,1 hPa 0,0 l/m 0 min 0 min 0 W/m 6,4 km/h (2 Bft) 97,87 %
25.12.2021 00:02 5,6 C 5,0 C 3,9 C 98 % 1005,1 hPa 0,0 l/m 0 min 0 min 0 W/m 3,2 km/h (1 Bft) 97,44 %
25.12.2021 00:04 5,6 C 4,4 C 3,9 C 98 % 1005,1 hPa 0,0 l/m 0 min 0 min 0 W/m 6,4 km/h (2 Bft) 100,00 %
25.12.2021 00:08 5,5 C 4,4 C 3,9 C 98 % 1005,1 hPa 0,0 l/m 0 min 0 min 0 W/m 6,4 km/h (2 Bft) 98,95 %
25.12.2021 00:10 5,5 C 4,4 C 3,9 C 98 % 1005,1 hPa 0,0 l/m 0 min 0 min 0 W/m 6,4 km/h (2 Bft) 100,00 %
25.12.2021 00:12 5,4 C 4,4 C 3,9 C 98 % 1005,1 hPa 0,0 l/m 0 min 0 min 0 W/m 6,4 km/h (2 Bft) 100,00 %
25.12.2021 00:14 5,4 C 4,4 C 3,9 C 98 % 1005,1 hPa 0,0 l/m 0 min 0 min 0 W/m 6,4 km/h (2 Bft) 97,83 %
25.12.2021 00:16 5,4 C 4,4 C 3,9 C 98 % 1005,1 hPa 0,0 l/m 0 min 0 min 0 W/m 6,4 km/h (2 Bft) 100,00 %
25.12.2021 00:18 5,4 C 4,4 C 3,9 C 98 % 1005,1 hPa 0,0 l/m 0 min 0 min 0 W/m 12,9 km/h (3 Bft) 97,87 %
25.12.2021 00:20 5,3 C 4,4 C 3,9 C 98 % 1005,1 hPa 0,0 l/m 0 min 0 min 0 W/m 9,7 km/h (2 Bft) 100,00 %
25.12.2021 00:22 5,3 C 4,4 C 3,9 C 98 % 1005,1 hPa 0,0 l/m 0 min 0 min 0 W/m 6,4 km/h (2 Bft) 100,00 %
25.12.2021 00:24 5,3 C 4,4 C 3,9 C 98 % 1005,2 hPa 0,0 l/m 0 min 0 min 0 W/m 6,4 km/h (2 Bft) 100,00 %
25.12.2021 00:26 5,3 C 4,4 C 3,9 C 98 % 1005,2 hPa 0,0 l/m 0 min 0 min 0 W/m 6,4 km/h (2 Bft) 100,00 %
25.12.2021 00:28 5,3 C 4,4 C 3,9 C 98 % 1005,3 hPa 0,0 l/m 0 min 0 min 0 W/m 6,4 km/h (2 Bft) 100,00 %
25.12.2021 00:30 5,2 C 4,4 C 3,9 C 98 % 1005,3 hPa 0,0 l/m 0 min 0 min 0 W/m 6,4 km/h (2 Bft) 100,00 %
25.12.2021 00:32 5,2 C 4,4 C 3,9 C 98 % 1005,2 hPa 0,0 l/m 0 min 0 min 0 W/m 6,4 km/h (2 Bft) 100,00 %
25.12.2021 00:38 5,2 C 4,4 C 3,9 C 98 % 1005,3 hPa 0,0 l/m 0 min 0 min 0 W/m 9,7 km/h (2 Bft) 100,00 %
25.12.2021 00:40 5,2 C 4,4 C 3,9 C 98 % 1005,3 hPa 0,0 l/m 0 min 0 min 0 W/m 9,7 km/h (2 Bft) 100,00 %
25.12.2021 00:42 5,1 C 4,4 C 3,9 C 98 % 1005,3 hPa 0,0 l/m 0 min 0 min 0 W/m 6,4 km/h (2 Bft) 97,87 %
25.12.2021 00:44 5,1 C 4,4 C 3,9 C 98 % 1005,3 hPa 0,0 l/m 0 min 0 min 0 W/m 9,7 km/h (2 Bft) 100,00 %
25.12.2021 00:46 5,1 C 4,4 C 3,9 C 98 % 1005,2 hPa 0,0 l/m 0 min 0 min 0 W/m 6,4 km/h (2 Bft) 97,87 %
25.12.2021 00:48 5,1 C 4,4 C 3,9 C 98 % 1005,3 hPa 0,0 l/m 0 min 0 min 0 W/m 6,4 km/h (2 Bft) 100,00 %
25.12.2021 00:50 5,1 C 4,4 C 3,9 C 98 % 1005,4 hPa 0,0 l/m 0 min 0 min 0 W/m 6,4 km/h (2 Bft) 97,83 %
25.12.2021 00:52 5,1 C 4,4 C 3,9 C 98 % 1005,3 hPa 0,0 l/m 0 min 0 min 0 W/m 6,4 km/h (2 Bft) 63,83 %
25.12.2021 00:54 5,1 C 4,4 C 3,3 C 98 % 1005,2 hPa 0,0 l/m 0 min 0 min 0 W/m 6,4 km/h (2 Bft) 90,48 %
25.12.2021 00:56 5,1 C 4,4 C 3,9 C 98 % 1005,2 hPa 0,0 l/m 0 min 0 min 0 W/m 6,4 km/h (2 Bft) 100,00 %
25.12.2021 00:58 5,1 C 4,4 C 3,9 C 98 % 1005,2 hPa 0,0 l/m 0 min 0 min 0 W/m 3,2 km/h (1 Bft) 100,00 %
25.12.2021 01:00 5,1 C 4,4 C 3,9 C 98 % 1005,1 hPa 0,0 l/m 0 min 0 min 0 W/m 6,4 km/h (2 Bft) 100,00 %
25.12.2021 01:02 5,0 C 4,4 C 3,3 C 98 % 1005,1 hPa 0,0 l/m 0 min 0 min 0 W/m 9,7 km/h (2 Bft) 100,00 %
25.12.2021 01:04 5,0 C 4,4 C 3,3 C 98 % 1005,1 hPa 0,0 l/m 0 min 0 min 0 W/m 6,4 km/h (2 Bft) 97,87 %
25.12.2021 01:06 5,0 C 4,4 C 3,3 C 98 % 1005,0 hPa 0,0 l/m 0 min 0 min 0 W/m 6,4 km/h (2 Bft) 100,00 %
25.12.2021 01:08 4,9 C 4,4 C 3,3 C 98 % 1005,1 hPa 0,0 l/m 0 min 0 min 0 W/m 6,4 km/h (2 Bft) 100,00 %
25.12.2021 01:10 4,9 C 4,4 C 3,3 C 98 % 1005,1 hPa 0,0 l/m 0 min 0 min 0 W/m 9,7 km/h (2 Bft) 100,00 %
25.12.2021 01:12 4,9 C 4,4 C 3,3 C 98 % 1005,1 hPa 0,0 l/m 0 min 0 min 0 W/m 12,9 km/h (3 Bft) 100,00 %
25.12.2021 01:14 4,9 C 4,4 C 3,3 C 98 % 1005,2 hPa 0,0 l/m 0 min 0 min 0 W/m 9,7 km/h (2 Bft) 97,87 %
25.12.2021 01:16 4,9 C 4,4 C 3,3 C 98 % 1005,1 hPa 0,0 l/m 0 min 0 min 0 W/m 12,9 km/h (3 Bft) 100,00 %
25.12.2021 01:18 4,8 C 4,4 C 3,3 C 98 % 1005,1 hPa 0,0 l/m 0 min 0 min 0 W/m 12,9 km/h (3 Bft) 97,87 %
25.12.2021 01:20 4,8 C 4,4 C 3,3 C 98 % 1005,2 hPa 0,0 l/m 0 min 0 min 0 W/m 9,7 km/h (2 Bft) 97,87 %
25.12.2021 01:22 4,8 C 4,4 C 3,3 C 98 % 1005,1 hPa 0,0 l/m 0 min 0 min 0 W/m 12,9 km/h (3 Bft) 91,49 %
25.12.2021 01:24 4,8 C 4,4 C 3,3 C 98 % 1005,2 hPa 0,0 l/m 0 min 0 min 0 W/m 6,4 km/h (2 Bft) 95,65 %
25.12.2021 01:26 4,8 C 4,4 C 3,3 C 98 % 1005,2 hPa 0,0 l/m 0 min 0 min 0 W/m 6,4 km/h (2 Bft) 95,74 %
25.12.2021 01:28 4,8 C 4,4 C 3,3 C 98 % 1005,2 hPa 0,0 l/m 0 min 0 min 0 W/m 6,4 km/h (2 Bft) 91,49 %
25.12.2021 01:30 4,7 C 4,4 C 3,3 C 98 % 1005,2 hPa 0,0 l/m 0 min 0 min 0 W/m 6,4 km/h (2 Bft) 93,62 %
25.12.2021 01:32 4,7 C 4,4 C 3,3 C 98 % 1005,2 hPa 0,0 l/m 0 min 0 min 0 W/m 3,2 km/h (1 Bft) 93,62 %
25.12.2021 01:34 4,7 C 3,9 C 3,3 C 98 % 1005,3 hPa 0,0 l/m 0 min 0 min 0 W/m 6,4 km/h (2 Bft) 91,49 %
25.12.2021 01:36 4,7 C 3,9 C 3,3 C 98 % 1005,4 hPa 0,0 l/m 0 min 0 min 0 W/m 9,7 km/h (2 Bft) 93,48 %
25.12.2021 01:38 4,7 C 3,9 C 3,3 C 98 % 1005,4 hPa 0,0 l/m 0 min 0 min 0 W/m 9,7 km/h (2 Bft) 89,36 %
25.12.2021 01:40 4,7 C 3,9 C 3,3 C 98 % 1005,3 hPa 0,0 l/m 0 min 0 min 0 W/m 9,7 km/h (2 Bft) 93,62 %
25.12.2021 01:42 4,7 C 3,9 C 3,3 C 98 % 1005,3 hPa 0,0 l/m 0 min 0 min 0 W/m 3,2 km/h (1 Bft) 93,62 %
25.12.2021 01:44 4,7 C 3,9 C 3,3 C 98 % 1005,3 hPa 0,0 l/m 0 min 0 min 0 W/m 9,7 km/h (2 Bft) 93,62 %
25.12.2021 01:46 4,7 C 3,9 C 3,3 C 98 % 1005,3 hPa 0,0 l/m 0 min 0 min 0 W/m 9,7 km/h (2 Bft) 89,13 %
25.12.2021 01:48 4,7 C 3,9 C 3,3 C 98 % 1005,3 hPa 0,0 l/m 0 min 0 min 0 W/m 12,9 km/h (3 Bft) 93,62 %
25.12.2021 01:50 4,7 C 3,9 C 3,3 C 98 % 1005,3 hPa 0,0 l/m 0 min 0 min 0 W/m 12,9 km/h (3 Bft) 93,62 %
25.12.2021 01:52 4,6 C 3,9 C 3,3 C 98 % 1005,3 hPa 0,0 l/m 0 min 0 min 0 W/m 12,9 km/h (3 Bft) 93,62 %
25.12.2021 01:54 4,7 C 3,9 C 3,3 C 98 % 1005,2 hPa 0,0 l/m 0 min 0 min 0 W/m 9,7 km/h (2 Bft) 91,49 %
25.12.2021 01:56 4,7 C 3,9 C 3,3 C 98 % 1005,2 hPa 0,0 l/m 0 min 0 min 0 W/m 12,9 km/h (3 Bft) 93,62 %
25.12.2021 01:58 4,6 C 3,9 C 3,3 C 98 % 1005,1 hPa 0,0 l/m 0 min 0 min 0 W/m 12,9 km/h (3 Bft) 56,25 %
25.12.2021 02:00 4,6 C 3,9 C 3,3 C 98 % 1005,1 hPa 0,0 l/m 0 min 0 min 0 W/m 16,1 km/h (3 Bft) 100,00 %
25.12.2021 02:02 4,6 C 3,9 C 3,3 C 98 % 1005,1 hPa 0,0 l/m 0 min 0 min 0 W/m 19,3 km/h (3 Bft) 93,75 %
25.12.2021 02:04 4,6 C 3,9 C 3,3 C 98 % 1005,1 hPa 0,0 l/m 0 min 0 min 0 W/m 9,7 km/h (2 Bft) 95,74 %
25.12.2021 02:06 4,6 C 3,9 C 3,3 C 98 % 1005,1 hPa 0,0 l/m 0 min 0 min 0 W/m 16,1 km/h (3 Bft) 95,74 %
25.12.2021 02:08 4,6 C 3,9 C 3,3 C 98 % 1005,1 hPa 0,0 l/m 0 min 0 min 0 W/m 9,7 km/h (2 Bft) 97,83 %
25.12.2021 02:10 4,6 C 3,9 C 3,3 C 98 % 1005,1 hPa 0,0 l/m 0 min 0 min 0 W/m 16,1 km/h (3 Bft) 97,87 %
25.12.2021 02:12 4,6 C 3,9 C 3,3 C 98 % 1005,1 hPa 0,0 l/m 0 min 0 min 0 W/m 16,1 km/h (3 Bft) 97,87 %
25.12.2021 02:14 4,6 C 3,9 C 3,3 C 98 % 1005,1 hPa 0,0 l/m 0 min 0 min 0 W/m 12,9 km/h (3 Bft) 97,87 %
25.12.2021 02:16 4,6 C 3,9 C 3,3 C 98 % 1005,1 hPa 0,0 l/m 0 min 0 min 0 W/m 9,7 km/h (2 Bft) 100,00 %
25.12.2021 02:18 4,6 C 3,9 C 3,3 C 98 % 1005,1 hPa 0,0 l/m 0 min 0 min 0 W/m 9,7 km/h (2 Bft) 100,00 %
25.12.2021 02:20 4,6 C 3,9 C 3,3 C 98 % 1005,1 hPa 0,0 l/m 0 min 0 min 0 W/m 16,1 km/h (3 Bft) 100,00 %
25.12.2021 02:22 4,5 C 3,9 C 3,3 C 98 % 1005,1 hPa 0,0 l/m 0 min 0 min 0 W/m 12,9 km/h (3 Bft) 97,87 %
25.12.2021 02:24 4,5 C 3,9 C 3,3 C 98 % 1005,1 hPa 0,0 l/m 0 min 0 min 0 W/m 12,9 km/h (3 Bft) 100,00 %
25.12.2021 02:26 4,4 C 3,9 C 3,3 C 98 % 1005,1 hPa 0,0 l/m 0 min 0 min 0 W/m 12,9 km/h (3 Bft) 100,00 %
25.12.2021 02:28 4,4 C 3,9 C 3,3 C 98 % 1005,2 hPa 0,0 l/m 0 min 0 min 0 W/m 12,9 km/h (3 Bft) 100,00 %
25.12.2021 02:30 4,4 C 3,9 C 3,3 C 98 % 1005,2 hPa 0,0 l/m 0 min 0 min 0 W/m 6,4 km/h (2 Bft) 100,00 %
25.12.2021 02:32 4,4 C 3,9 C 3,3 C 98 % 1005,2 hPa 0,0 l/m 0 min 0 min 0 W/m 6,4 km/h (2 Bft) 97,87 %
25.12.2021 02:34 4,4 C 3,9 C 3,3 C 98 % 1005,2 hPa 0,0 l/m 0 min 0 min 0 W/m 9,7 km/h (2 Bft) 100,00 %
25.12.2021 02:36 4,4 C 3,9 C 3,3 C 98 % 1005,3 hPa 0,0 l/m 0 min 0 min 0 W/m 6,4 km/h (2 Bft) 100,00 %
25.12.2021 02:38 4,3 C 3,9 C 3,3 C 98 % 1005,3 hPa 0,0 l/m 0 min 0 min 0 W/m 12,9 km/h (3 Bft) 100,00 %
25.12.2021 02:40 4,3 C 3,9 C 3,3 C 98 % 1005,2 hPa 0,0 l/m 0 min 0 min 0 W/m 12,9 km/h (3 Bft) 95,74 %
25.12.2021 02:42 4,3 C 3,9 C 2,8 C 98 % 1005,2 hPa 0,0 l/m 0 min 0 min 0 W/m 9,7 km/h (2 Bft) 95,83 %
25.12.2021 02:44 4,3 C 3,9 C 2,8 C 98 % 1005,3 hPa 0,0 l/m 0 min 0 min 0 W/m 9,7 km/h (2 Bft) 100,00 %
25.12.2021 02:46 4,2 C 3,9 C 2,8 C 98 % 1005,2 hPa 0,0 l/m 0 min 0 min 0 W/m 9,7 km/h (2 Bft) 100,00 %
25.12.2021 02:48 4,2 C 3,9 C 2,8 C 98 % 1005,3 hPa 0,0 l/m 0 min 0 min 0 W/m 9,7 km/h (2 Bft) 100,00 %
25.12.2021 02:50 4,2 C 3,9 C 2,8 C 98 % 1005,2 hPa 0,0 l/m 0 min 0 min 0 W/m 19,3 km/h (3 Bft) 97,92 %
25.12.2021 02:52 4,2 C 3,9 C 2,8 C 98 % 1005,2 hPa 0,0 l/m 0 min 0 min 0 W/m 9,7 km/h (2 Bft) 100,00 %
25.12.2021 02:54 4,2 C 3,9 C 2,8 C 98 % 1005,3 hPa 0,0 l/m 0 min 0 min 0 W/m 12,9 km/h (3 Bft) 100,00 %
25.12.2021 02:56 4,2 C 3,9 C 2,8 C 98 % 1005,2 hPa 0,0 l/m 0 min 0 min 0 W/m 9,7 km/h (2 Bft) 100,00 %
25.12.2021 02:58 4,2 C 3,9 C 2,8 C 98 % 1005,2 hPa 0,0 l/m 0 min 0 min 0 W/m 9,7 km/h (2 Bft) 100,00 %
25.12.2021 03:00 4,2 C 3,9 C 2,8 C 98 % 1005,2 hPa 0,0 l/m 0 min 0 min 0 W/m 9,7 km/h (2 Bft) 100,00 %
25.12.2021 03:02 4,1 C 3,9 C 2,8 C 98 % 1005,3 hPa 0,0 l/m 0 min 0 min 0 W/m 6,4 km/h (2 Bft) 98,00 %
25.12.2021 03:04 4,1 C 3,9 C 2,8 C 98 % 1005,3 hPa 0,0 l/m 0 min 0 min 0 W/m 9,7 km/h (2 Bft) 100,00 %
25.12.2021 03:06 4,1 C 3,9 C 2,8 C 98 % 1005,3 hPa 0,0 l/m 0 min 0 min 0 W/m 16,1 km/h (3 Bft) 100,00 %
25.12.2021 03:08 4,1 C 3,9 C 2,8 C 98 % 1005,3 hPa 0,0 l/m 0 min 0 min 0 W/m 12,9 km/h (3 Bft) 100,00 %
25.12.2021 03:10 4,1 C 3,9 C 2,8 C 98 % 1005,3 hPa 0,0 l/m 0 min 0 min 0 W/m 12,9 km/h (3 Bft) 100,00 %
25.12.2021 03:12 4,1 C 3,9 C 2,8 C 98 % 1005,3 hPa 0,0 l/m 0 min 0 min 0 W/m 12,9 km/h (3 Bft) 100,00 %
25.12.2021 03:14 4,1 C 3,9 C 2,8 C 98 % 1005,3 hPa 0,0 l/m 0 min 0 min 0 W/m 12,9 km/h (3 Bft) 100,00 %
25.12.2021 03:16 4,1 C 3,3 C 2,8 C 98 % 1005,4 hPa 0,0 l/m 0 min 0 min 0 W/m 22,5 km/h (4 Bft) 97,87 %
25.12.2021 03:18 4,1 C 3,3 C 2,8 C 98 % 1005,4 hPa 0,0 l/m 0 min 0 min 0 W/m 12,9 km/h (3 Bft) 95,74 %
25.12.2021 03:20 4,1 C 3,3 C 2,8 C 98 % 1005,3 hPa 0,0 l/m 0 min 0 min 0 W/m 12,9 km/h (3 Bft) 97,87 %
25.12.2021 03:22 4,1 C 3,3 C 2,8 C 98 % 1005,3 hPa 0,0 l/m 0 min 0 min 0 W/m 16,1 km/h (3 Bft) 93,48 %
25.12.2021 03:24 4,0 C 3,3 C 2,8 C 98 % 1005,3 hPa 0,0 l/m 0 min 0 min 0 W/m 12,9 km/h (3 Bft) 97,87 %
25.12.2021 03:26 4,0 C 3,3 C 2,8 C 98 % 1005,3 hPa 0,0 l/m 0 min 0 min 0 W/m 9,7 km/h (2 Bft) 97,87 %
25.12.2021 03:28 4,0 C 3,3 C 2,8 C 98 % 1005,2 hPa 0,0 l/m 0 min 0 min 0 W/m 12,9 km/h (3 Bft) 95,74 %
25.12.2021 03:30 3,9 C 3,3 C 2,8 C 98 % 1005,2 hPa 0,0 l/m 0 min 0 min 0 W/m 12,9 km/h (3 Bft) 97,87 %
25.12.2021 03:32 3,9 C 3,3 C 2,8 C 98 % 1005,2 hPa 0,0 l/m 0 min 0 min 0 W/m 22,5 km/h (4 Bft) 95,74 %
25.12.2021 03:34 3,9 C 3,3 C 2,8 C 98 % 1005,2 hPa 0,0 l/m 0 min 0 min 0 W/m 9,7 km/h (2 Bft) 97,83 %
25.12.2021 03:36 3,9 C 3,3 C 2,8 C 98 % 1005,2 hPa 0,0 l/m 0 min 0 min 0 W/m 12,9 km/h (3 Bft) 97,87 %
25.12.2021 03:38 3,9 C 3,3 C 2,8 C 98 % 1005,2 hPa 0,0 l/m 0 min 0 min 0 W/m 19,3 km/h (3 Bft) 95,74 %
25.12.2021 03:40 3,8 C 3,3 C 2,8 C 98 % 1005,2 hPa 0,0 l/m 0 min 0 min 0 W/m 12,9 km/h (3 Bft) 95,74 %
25.12.2021 03:42 3,8 C 3,3 C 2,8 C 98 % 1005,2 hPa 0,0 l/m 0 min 0 min 0 W/m 9,7 km/h (2 Bft) 95,74 %
25.12.2021 03:44 3,8 C 3,3 C 2,8 C 98 % 1005,1 hPa 0,0 l/m 0 min 0 min 0 W/m 19,3 km/h (3 Bft) 95,74 %
25.12.2021 03:46 3,8 C 3,3 C 2,8 C 98 % 1005,1 hPa 0,0 l/m 0 min 0 min 0 W/m 9,7 km/h (2 Bft) 95,65 %
25.12.2021 03:48 3,7 C 3,3 C 2,8 C 98 % 1005,1 hPa 0,0 l/m 0 min 0 min 0 W/m 16,1 km/h (3 Bft) 95,74 %
25.12.2021 03:50 3,7 C 3,3 C 2,8 C 98 % 1005,1 hPa 0,0 l/m 0 min 0 min 0 W/m 12,9 km/h (3 Bft) 97,87 %
25.12.2021 03:52 3,7 C 3,3 C 2,2 C 98 % 1005,2 hPa 0,0 l/m 0 min 0 min 0 W/m 16,1 km/h (3 Bft) 97,87 %
25.12.2021 03:54 3,6 C 3,3 C 2,2 C 98 % 1005,1 hPa 0,0 l/m 0 min 0 min 0 W/m 22,5 km/h (4 Bft) 95,74 %
25.12.2021 03:56 3,6 C 3,3 C 2,2 C 98 % 1005,1 hPa 0,0 l/m 0 min 0 min 0 W/m 12,9 km/h (3 Bft) 97,83 %
25.12.2021 03:58 3,6 C 2,8 C 2,2 C 98 % 1005,0 hPa 0,0 l/m 0 min 0 min 0 W/m 19,3 km/h (3 Bft) 97,87 %
25.12.2021 04:00 3,6 C 2,8 C 2,2 C 98 % 1005,0 hPa 0,0 l/m 0 min 0 min 0 W/m 12,9 km/h (3 Bft) 97,87 %
25.12.2021 04:02 3,5 C 2,8 C 2,2 C 98 % 1005,1 hPa 0,0 l/m 0 min 0 min 0 W/m 19,3 km/h (3 Bft) 100,00 %
25.12.2021 04:04 3,4 C 2,8 C 2,2 C 98 % 1005,1 hPa 0,0 l/m 0 min 0 min 0 W/m 22,5 km/h (4 Bft) 95,74 %
25.12.2021 04:06 3,4 C 2,8 C 2,2 C 98 % 1005,0 hPa 0,0 l/m 0 min 0 min 0 W/m 16,1 km/h (3 Bft) 97,87 %
25.12.2021 04:08 3,4 C 2,8 C 2,2 C 98 % 1005,0 hPa 0,0 l/m 0 min 0 min 0 W/m 9,7 km/h (2 Bft) 100,00 %
25.12.2021 04:10 3,4 C 2,8 C 2,2 C 98 % 1005,0 hPa 0,0 l/m 0 min 0 min 0 W/m 12,9 km/h (3 Bft) 100,00 %
25.12.2021 04:12 3,3 C 2,8 C 2,2 C 98 % 1005,1 hPa 0,0 l/m 0 min 0 min 0 W/m 12,9 km/h (3 Bft) 97,87 %
25.12.2021 04:14 3,3 C 2,8 C 2,2 C 98 % 1005,1 hPa 0,0 l/m 0 min 0 min 0 W/m 12,9 km/h (3 Bft) 97,87 %
25.12.2021 04:16 3,3 C 2,8 C 2,2 C 98 % 1005,1 hPa 0,0 l/m 0 min 0 min 0 W/m 16,1 km/h (3 Bft) 97,87 %
25.12.2021 04:18 3,3 C 2,8 C 2,2 C 98 % 1005,1 hPa 0,0 l/m 0 min 0 min 0 W/m 16,1 km/h (3 Bft) 100,00 %
25.12.2021 04:20 3,3 C 2,8 C 2,2 C 98 % 1005,0 hPa 0,0 l/m 0 min 0 min 0 W/m 16,1 km/h (3 Bft) 100,00 %
25.12.2021 04:22 3,3 C 2,8 C 2,2 C 98 % 1005,1 hPa 0,0 l/m 0 min 0 min 0 W/m 12,9 km/h (3 Bft) 100,00 %
25.12.2021 04:24 3,3 C 2,8 C 2,2 C 98 % 1005,0 hPa 0,0 l/m 0 min 0 min 0 W/m 19,3 km/h (3 Bft) 97,87 %
25.12.2021 04:26 3,3 C 2,8 C 2,2 C 98 % 1005,1 hPa 0,0 l/m 0 min 0 min 0 W/m 19,3 km/h (3 Bft) 97,87 %
25.12.2021 04:28 3,2 C 2,8 C 2,2 C 98 % 1005,2 hPa 0,0 l/m 0 min 0 min 0 W/m 25,7 km/h (4 Bft) 100,00 %
25.12.2021 04:30 3,2 C 2,8 C 2,2 C 98 % 1005,1 hPa 0,0 l/m 0 min 0 min 0 W/m 25,7 km/h (4 Bft) 100,00 %
25.12.2021 04:32 3,2 C 2,8 C 2,2 C 98 % 1005,2 hPa 0,0 l/m 0 min 0 min 0 W/m 16,1 km/h (3 Bft) 100,00 %
25.12.2021 04:34 3,1 C 2,8 C 2,2 C 98 % 1005,2 hPa 0,0 l/m 0 min 0 min 0 W/m 9,7 km/h (2 Bft) 100,00 %
25.12.2021 04:36 3,1 C 2,8 C 2,2 C 98 % 1005,2 hPa 0,0 l/m 0 min 0 min 0 W/m 12,9 km/h (3 Bft) 100,00 %
25.12.2021 04:38 3,1 C 2,8 C 2,2 C 97 % 1005,2 hPa 0,0 l/m 0 min 0 min 0 W/m 12,9 km/h (3 Bft) 100,00 %
25.12.2021 04:40 3,1 C 2,8 C 2,2 C 97 % 1005,2 hPa 0,0 l/m 0 min 0 min 0 W/m 16,1 km/h (3 Bft) 100,00 %
25.12.2021 04:42 3,1 C 2,8 C 2,2 C 97 % 1005,3 hPa 0,0 l/m 0 min 0 min 0 W/m 19,3 km/h (3 Bft) 95,65 %
25.12.2021 04:44 3,1 C 2,8 C 2,2 C 97 % 1005,3 hPa 0,0 l/m 0 min 0 min 0 W/m 16,1 km/h (3 Bft) 97,87 %
25.12.2021 04:46 3,0 C 2,8 C 1,7 C 97 % 1005,4 hPa 0,0 l/m 0 min 0 min 0 W/m 19,3 km/h (3 Bft) 97,87 %
25.12.2021 04:48 3,0 C 2,8 C 1,7 C 97 % 1005,4 hPa 0,0 l/m 0 min 2 min 0 W/m 19,3 km/h (3 Bft) 97,87 %
25.12.2021 04:50 2,9 C 2,8 C 1,7 C 97 % 1005,4 hPa 0,0 l/m 0 min 2 min 0 W/m 12,9 km/h (3 Bft) 97,87 %
25.12.2021 04:52 2,9 C 2,8 C 1,7 C 97 % 1005,4 hPa 0,0 l/m 0 min 2 min 0 W/m 9,7 km/h (2 Bft) 97,87 %
25.12.2021 04:54 2,9 C 2,2 C 1,7 C 97 % 1005,4 hPa 0,0 l/m 0 min 2 min 0 W/m 32,2 km/h (5 Bft) 97,83 %
25.12.2021 04:56 2,9 C 2,2 C 1,7 C 97 % 1005,4 hPa 0,0 l/m 0 min 2 min 0 W/m 12,9 km/h (3 Bft) 97,87 %
25.12.2021 04:58 2,9 C 2,2 C 1,7 C 97 % 1005,3 hPa 0,0 l/m 0 min 2 min 0 W/m 6,4 km/h (2 Bft) 91,49 %
25.12.2021 05:00 2,9 C 2,2 C 1,7 C 97 % 1005,4 hPa 0,0 l/m 0 min 2 min 0 W/m 22,5 km/h (4 Bft) 97,87 %
25.12.2021 05:02 2,8 C 2,2 C 1,7 C 97 % 1005,4 hPa 0,0 l/m 0 min 0 min 0 W/m 19,3 km/h (3 Bft) 97,87 %
25.12.2021 05:04 2,8 C 2,2 C 1,7 C 97 % 1005,4 hPa 0,0 l/m 0 min 2 min 0 W/m 12,9 km/h (3 Bft) 93,62 %
25.12.2021 05:06 2,8 C 2,2 C 1,7 C 97 % 1005,4 hPa 0,2 l/m 0 min 2 min 0 W/m 16,1 km/h (3 Bft) 95,65 %
25.12.2021 05:08 2,8 C 2,2 C 1,7 C 97 % 1005,4 hPa 0,0 l/m 0 min 2 min 0 W/m 16,1 km/h (3 Bft) 95,74 %
25.12.2021 05:10 2,8 C 2,2 C 1,7 C 97 % 1005,4 hPa 0,0 l/m 0 min 2 min 0 W/m 16,1 km/h (3 Bft) 95,74 %
25.12.2021 05:12 2,7 C 2,2 C 1,7 C 97 % 1005,4 hPa 0,0 l/m 0 min 2 min 0 W/m 22,5 km/h (4 Bft) 95,74 %
25.12.2021 05:14 2,7 C 2,2 C 1,7 C 97 % 1005,4 hPa 0,0 l/m 0 min 2 min 0 W/m 19,3 km/h (3 Bft) 93,62 %
25.12.2021 05:16 2,7 C 2,2 C 1,7 C 97 % 1005,3 hPa 0,0 l/m 0 min 2 min 0 W/m 16,1 km/h (3 Bft) 93,62 %
25.12.2021 05:18 2,7 C 2,2 C 1,7 C 97 % 1005,4 hPa 0,0 l/m 0 min 2 min 0 W/m 12,9 km/h (3 Bft) 95,65 %
25.12.2021 05:20 2,7 C 2,2 C 1,7 C 97 % 1005,4 hPa 0,0 l/m 0 min 2 min 0 W/m 16,1 km/h (3 Bft) 93,62 %
25.12.2021 05:22 2,6 C 2,2 C 1,7 C 97 % 1005,4 hPa 0,0 l/m 0 min 2 min 0 W/m 9,7 km/h (2 Bft) 95,74 %
25.12.2021 05:24 2,7 C 2,2 C 1,7 C 97 % 1005,4 hPa 0,2 l/m 0 min 2 min 0 W/m 16,1 km/h (3 Bft) 95,74 %
25.12.2021 05:26 2,6 C 2,2 C 1,7 C 97 % 1005,4 hPa 0,0 l/m 0 min 2 min 0 W/m 16,1 km/h (3 Bft) 95,74 %
25.12.2021 05:28 2,6 C 2,2 C 1,7 C 97 % 1005,5 hPa 0,0 l/m 0 min 2 min 0 W/m 12,9 km/h (3 Bft) 95,74 %
25.12.2021 05:30 2,6 C 2,2 C 1,7 C 97 % 1005,5 hPa 0,0 l/m 0 min 2 min 0 W/m 12,9 km/h (3 Bft) 91,30 %
25.12.2021 05:32 2,6 C 2,2 C 1,7 C 97 % 1005,5 hPa 0,0 l/m 0 min 2 min 0 W/m 16,1 km/h (3 Bft) 95,74 %
25.12.2021 05:34 2,6 C 2,2 C 1,7 C 97 % 1005,5 hPa 0,0 l/m 0 min 2 min 0 W/m 12,9 km/h (3 Bft) 93,62 %
25.12.2021 05:36 2,6 C 2,2 C 1,7 C 97 % 1005,5 hPa 0,2 l/m 0 min 2 min 0 W/m 12,9 km/h (3 Bft) 95,74 %
25.12.2021 05:38 2,6 C 2,2 C 1,7 C 97 % 1005,6 hPa 0,0 l/m 0 min 2 min 0 W/m 9,7 km/h (2 Bft) 100,00 %
25.12.2021 05:40 2,5 C 1,7 C 1,7 C 97 % 1005,6 hPa 0,0 l/m 0 min 2 min 0 W/m 19,3 km/h (3 Bft) 95,65 %
25.12.2021 05:42 2,5 C 1,7 C 1,7 C 97 % 1005,6 hPa 0,0 l/m 0 min 2 min 0 W/m 12,9 km/h (3 Bft) 100,00 %
25.12.2021 05:44 2,5 C 1,7 C 1,1 C 97 % 1005,6 hPa 0,2 l/m 0 min 2 min 0 W/m 12,9 km/h (3 Bft) 100,00 %
25.12.2021 05:46 2,5 C 1,7 C 1,1 C 97 % 1005,6 hPa 0,0 l/m 0 min 2 min 0 W/m 9,7 km/h (2 Bft) 97,87 %
25.12.2021 05:48 2,4 C 1,7 C 1,1 C 97 % 1005,6 hPa 0,0 l/m 0 min 2 min 0 W/m 22,5 km/h (4 Bft) 100,00 %
25.12.2021 05:50 2,4 C 1,7 C 1,1 C 97 % 1005,6 hPa 0,0 l/m 0 min 2 min 0 W/m 9,7 km/h (2 Bft) 95,74 %
25.12.2021 05:52 2,4 C 1,7 C 1,1 C 97 % 1005,6 hPa 0,2 l/m 0 min 2 min 0 W/m 16,1 km/h (3 Bft) 100,00 %
25.12.2021 05:54 2,4 C 1,7 C 1,1 C 97 % 1005,7 hPa 0,0 l/m 0 min 2 min 0 W/m 12,9 km/h (3 Bft) 97,87 %
25.12.2021 05:56 2,4 C 1,7 C 1,1 C 97 % 1005,7 hPa 0,0 l/m 0 min 2 min 0 W/m 12,9 km/h (3 Bft) 97,87 %
25.12.2021 05:58 2,4 C 1,7 C 1,1 C 97 % 1005,7 hPa 0,0 l/m 0 min 2 min 0 W/m 16,1 km/h (3 Bft) 95,74 %
25.12.2021 06:00 2,4 C 1,7 C 1,1 C 97 % 1005,7 hPa 0,2 l/m 0 min 2 min 0 W/m 16,1 km/h (3 Bft) 97,87 %
25.12.2021 06:02 2,3 C 1,7 C 1,1 C 97 % 1005,8 hPa 0,0 l/m 0 min 2 min 0 W/m 22,5 km/h (4 Bft) 95,74 %
25.12.2021 06:04 2,3 C 1,7 C 1,1 C 97 % 1005,7 hPa 0,0 l/m 0 min 2 min 0 W/m 25,7 km/h (4 Bft) 97,83 %
25.12.2021 06:08 2,3 C 1,7 C 1,1 C 97 % 1005,7 hPa 0,2 l/m 0 min 4 min 0 W/m 19,3 km/h (3 Bft) 96,81 %
25.12.2021 06:10 2,3 C 1,7 C 1,1 C 97 % 1005,8 hPa 0,0 l/m 0 min 2 min 0 W/m 16,1 km/h (3 Bft) 95,74 %
25.12.2021 06:12 2,3 C 1,7 C 1,1 C 97 % 1005,8 hPa 0,0 l/m 0 min 2 min 0 W/m 12,9 km/h (3 Bft) 97,87 %
25.12.2021 06:14 2,2 C 1,7 C 1,1 C 97 % 1005,8 hPa 0,0 l/m 0 min 2 min 0 W/m 16,1 km/h (3 Bft) 97,87 %
25.12.2021 06:16 2,2 C 1,7 C 1,1 C 97 % 1005,8 hPa 0,0 l/m 0 min 2 min 0 W/m 12,9 km/h (3 Bft) 97,83 %
25.12.2021 06:18 2,2 C 1,7 C 1,1 C 97 % 1005,8 hPa 0,0 l/m 0 min 2 min 0 W/m 12,9 km/h (3 Bft) 95,74 %
25.12.2021 06:20 2,2 C 1,7 C 1,1 C 97 % 1005,8 hPa 0,0 l/m 0 min 2 min 0 W/m 19,3 km/h (3 Bft) 97,87 %
25.12.2021 06:22 2,2 C 1,7 C 1,1 C 97 % 1005,8 hPa 0,2 l/m 0 min 2 min 0 W/m 16,1 km/h (3 Bft) 97,87 %
25.12.2021 06:24 2,2 C 1,7 C 1,1 C 97 % 1005,8 hPa 0,0 l/m 0 min 2 min 0 W/m 9,7 km/h (2 Bft) 97,87 %
25.12.2021 06:26 2,2 C 1,7 C 1,1 C 97 % 1005,8 hPa 0,0 l/m 0 min 2 min 0 W/m 16,1 km/h (3 Bft) 97,83 %
25.12.2021 06:28 2,2 C 1,7 C 1,1 C 97 % 1005,8 hPa 0,0 l/m 0 min 2 min 0 W/m 16,1 km/h (3 Bft) 97,87 %
25.12.2021 06:30 2,2 C 1,7 C 1,1 C 97 % 1005,8 hPa 0,2 l/m 0 min 2 min 0 W/m 12,9 km/h (3 Bft) 97,87 %
25.12.2021 06:32 2,2 C 1,7 C 1,1 C 97 % 1005,8 hPa 0,0 l/m 0 min 2 min 0 W/m 16,1 km/h (3 Bft) 100,00 %
25.12.2021 06:34 2,1 C 1,7 C 1,1 C 97 % 1005,9 hPa 0,0 l/m 0 min 2 min 0 W/m 22,5 km/h (4 Bft) 100,00 %
25.12.2021 06:36 2,1 C 1,7 C 1,1 C 98 % 1005,9 hPa 0,0 l/m 0 min 2 min 0 W/m 16,1 km/h (3 Bft) 97,87 %
25.12.2021 06:38 2,1 C 1,7 C 1,1 C 98 % 1005,9 hPa 0,0 l/m 0 min 2 min 0 W/m 19,3 km/h (3 Bft) 100,00 %
25.12.2021 06:40 2,1 C 1,7 C 1,1 C 98 % 1005,8 hPa 0,0 l/m 0 min 2 min 0 W/m 9,7 km/h (2 Bft) 97,87 %
25.12.2021 06:42 2,1 C 1,1 C 1,1 C 98 % 1005,9 hPa 0,0 l/m 0 min 2 min 0 W/m 22,5 km/h (4 Bft) 95,74 %
25.12.2021 06:44 2,1 C 1,1 C 1,1 C 98 % 1005,9 hPa 0,2 l/m 0 min 2 min 0 W/m 25,7 km/h (4 Bft) 97,87 %
25.12.2021 06:46 2,0 C 1,1 C 1,1 C 97 % 1005,9 hPa 0,0 l/m 0 min 2 min 0 W/m 16,1 km/h (3 Bft) 100,00 %
25.12.2021 06:48 2,0 C 1,1 C 0,6 C 97 % 1005,9 hPa 0,0 l/m 0 min 2 min 0 W/m 19,3 km/h (3 Bft) 100,00 %
25.12.2021 06:50 1,9 C 1,1 C 0,6 C 97 % 1005,9 hPa 0,2 l/m 0 min 2 min 0 W/m 16,1 km/h (3 Bft) 100,00 %
25.12.2021 06:52 1,9 C 1,1 C 0,6 C 97 % 1005,9 hPa 0,0 l/m 0 min 2 min 0 W/m 19,3 km/h (3 Bft) 97,96 %
25.12.2021 06:54 1,9 C 1,1 C 0,6 C 97 % 1005,8 hPa 0,0 l/m 0 min 2 min 0 W/m 22,5 km/h (4 Bft) 96,00 %
25.12.2021 06:56 1,8 C 1,1 C 0,6 C 97 % 1005,9 hPa 0,0 l/m 0 min 2 min 0 W/m 19,3 km/h (3 Bft) 97,87 %
25.12.2021 06:58 1,8 C 1,1 C 0,6 C 97 % 1005,9 hPa 0,2 l/m 0 min 2 min 0 W/m 16,1 km/h (3 Bft) 95,74 %
25.12.2021 07:00 1,8 C 1,1 C 0,6 C 97 % 1006,0 hPa 0,0 l/m 0 min 2 min 0 W/m 38,6 km/h (5 Bft) 95,65 %
25.12.2021 07:02 1,8 C 1,1 C 0,6 C 97 % 1006,0 hPa 0,0 l/m 0 min 2 min 0 W/m 29,0 km/h (5 Bft) 97,87 %
25.12.2021 07:04 1,7 C 1,1 C 0,6 C 97 % 1006,0 hPa 0,0 l/m 0 min 2 min 0 W/m 22,5 km/h (4 Bft) 95,74 %
25.12.2021 07:06 1,7 C 1,1 C 0,6 C 97 % 1006,0 hPa 0,2 l/m 0 min 2 min 0 W/m 12,9 km/h (3 Bft) 95,74 %
25.12.2021 07:08 1,7 C 1,1 C 0,6 C 97 % 1006,0 hPa 0,0 l/m 0 min 2 min 0 W/m 16,1 km/h (3 Bft) 97,87 %
25.12.2021 07:10 1,7 C 1,1 C 0,6 C 97 % 1006,1 hPa 0,0 l/m 0 min 2 min 0 W/m 19,3 km/h (3 Bft) 97,87 %
25.12.2021 07:12 1,6 C 1,1 C 0,6 C 97 % 1006,1 hPa 0,0 l/m 0 min 2 min 0 W/m 16,1 km/h (3 Bft) 97,83 %
25.12.2021 07:14 1,6 C 1,1 C 0,6 C 97 % 1006,1 hPa 0,0 l/m 0 min 2 min 0 W/m 19,3 km/h (3 Bft) 97,87 %
25.12.2021 07:16 1,6 C 1,1 C 0,6 C 97 % 1006,1 hPa 0,0 l/m 0 min 2 min 0 W/m 16,1 km/h (3 Bft) 97,87 %
25.12.2021 07:18 1,6 C 1,1 C 0,6 C 97 % 1006,2 hPa 0,2 l/m 0 min 2 min 0 W/m 22,5 km/h (4 Bft) 100,00 %
25.12.2021 07:20 1,6 C 1,1 C 0,6 C 97 % 1006,2 hPa 0,0 l/m 0 min 2 min 0 W/m 12,9 km/h (3 Bft) 100,00 %
25.12.2021 07:22 1,6 C 1,1 C 0,6 C 97 % 1006,2 hPa 0,0 l/m 0 min 2 min 0 W/m 9,7 km/h (2 Bft) 100,00 %
25.12.2021 07:24 1,6 C 1,1 C 0,6 C 97 % 1006,2 hPa 0,0 l/m 0 min 2 min 0 W/m 22,5 km/h (4 Bft) 95,74 %
25.12.2021 07:26 1,6 C 1,1 C 0,6 C 97 % 1006,3 hPa 0,0 l/m 0 min 2 min 0 W/m 25,7 km/h (4 Bft) 100,00 %
25.12.2021 07:28 1,5 C 0,6 C 0,6 C 97 % 1006,3 hPa 0,2 l/m 0 min 2 min 0 W/m 9,7 km/h (2 Bft) 97,87 %
25.12.2021 07:30 1,4 C 0,6 C 0,6 C 97 % 1006,3 hPa 0,0 l/m 0 min 2 min 0 W/m 29,0 km/h (5 Bft) 100,00 %
25.12.2021 07:32 1,4 C 0,6 C 0,6 C 97 % 1006,4 hPa 0,0 l/m 0 min 2 min 0 W/m 19,3 km/h (3 Bft) 100,00 %
25.12.2021 07:34 1,4 C 0,6 C 0,6 C 97 % 1006,4 hPa 0,0 l/m 0 min 2 min 0 W/m 19,3 km/h (3 Bft) 100,00 %
25.12.2021 07:36 1,3 C 0,6 C 0,0 C 97 % 1006,4 hPa 0,0 l/m 0 min 2 min 0 W/m 25,7 km/h (4 Bft) 100,00 %
25.12.2021 07:38 1,3 C 0,6 C 0,0 C 97 % 1006,4 hPa 0,0 l/m 0 min 2 min 0 W/m 12,9 km/h (3 Bft) 100,00 %
25.12.2021 07:40 1,2 C 0,6 C 0,0 C 97 % 1006,4 hPa 0,0 l/m 0 min 2 min 0 W/m 22,5 km/h (4 Bft) 100,00 %
25.12.2021 07:42 1,2 C 0,6 C 0,0 C 97 % 1006,4 hPa 0,0 l/m 0 min 2 min 0 W/m 12,9 km/h (3 Bft) 97,87 %
25.12.2021 07:44 1,2 C 0,6 C 0,0 C 97 % 1006,5 hPa 0,0 l/m 0 min 2 min 0 W/m 16,1 km/h (3 Bft) 97,87 %
25.12.2021 07:46 1,1 C 0,6 C 0,0 C 97 % 1006,4 hPa 0,0 l/m 0 min 2 min 0 W/m 12,9 km/h (3 Bft) 100,00 %
25.12.2021 07:48 1,1 C 0,6 C 0,0 C 97 % 1006,5 hPa 0,0 l/m 0 min 2 min 0 W/m 12,9 km/h (3 Bft) 100,00 %
25.12.2021 07:50 1,1 C 0,6 C 0,0 C 97 % 1006,5 hPa 0,0 l/m 0 min 2 min 0 W/m 9,7 km/h (2 Bft) 100,00 %
25.12.2021 07:52 1,1 C 0,6 C 0,0 C 97 % 1006,5 hPa 0,0 l/m 0 min 2 min 0 W/m 12,9 km/h (3 Bft) 100,00 %
25.12.2021 07:54 1,1 C 0,6 C 0,0 C 97 % 1006,6 hPa 0,0 l/m 0 min 2 min 0 W/m 12,9 km/h (3 Bft) 100,00 %
25.12.2021 07:56 1,0 C 0,6 C 0,0 C 97 % 1006,6 hPa 0,0 l/m 0 min 2 min 0 W/m 9,7 km/h (2 Bft) 100,00 %
25.12.2021 07:58 1,0 C 0,6 C 0,0 C 97 % 1006,6 hPa 0,2 l/m 0 min 2 min 0 W/m 9,7 km/h (2 Bft) 97,87 %
25.12.2021 08:00 0,9 C 0,6 C 0,0 C 97 % 1006,6 hPa 0,0 l/m 0 min 2 min 0 W/m 16,1 km/h (3 Bft) 100,00 %
25.12.2021 08:02 0,9 C 0,6 C 0,0 C 97 % 1006,6 hPa 0,0 l/m 0 min 2 min 0 W/m 16,1 km/h (3 Bft) 100,00 %
25.12.2021 08:04 0,9 C 0,6 C 0,0 C 97 % 1006,7 hPa 0,0 l/m 0 min 2 min 0 W/m 9,7 km/h (2 Bft) 97,92 %
25.12.2021 08:06 0,9 C 0,0 C 0,0 C 97 % 1006,6 hPa 0,0 l/m 0 min 2 min 0 W/m 16,1 km/h (3 Bft) 93,62 %
25.12.2021 08:08 0,9 C 0,0 C 0,0 C 97 % 1006,7 hPa 0,0 l/m 0 min 2 min 0 W/m 19,3 km/h (3 Bft) 95,74 %
25.12.2021 08:10 0,9 C 0,0 C 0,0 C 97 % 1006,7 hPa 0,0 l/m 0 min 2 min 0 W/m 16,1 km/h (3 Bft) 93,62 %
25.12.2021 08:12 0,8 C 0,0 C 0,0 C 97 % 1006,8 hPa 0,0 l/m 0 min 2 min 0 W/m 16,1 km/h (3 Bft) 93,62 %
25.12.2021 08:14 0,8 C 0,0 C 0,0 C 97 % 1006,8 hPa 0,0 l/m 0 min 2 min 0 W/m 9,7 km/h (2 Bft) 95,65 %
25.12.2021 08:16 0,8 C 0,0 C 0,0 C 97 % 1006,8 hPa 0,0 l/m 0 min 0 min 0 W/m 9,7 km/h (2 Bft) 93,62 %
25.12.2021 08:18 0,8 C 0,0 C 0,0 C 97 % 1006,8 hPa 0,0 l/m 0 min 2 min 0 W/m 12,9 km/h (3 Bft) 93,62 %
25.12.2021 08:20 0,7 C 0,0 C -0,6 C 97 % 1006,8 hPa 0,0 l/m 0 min 0 min 0 W/m 12,9 km/h (3 Bft) 95,74 %
25.12.2021 08:22 0,7 C 0,0 C -0,6 C 97 % 1006,9 hPa 0,0 l/m 0 min 2 min 0 W/m 12,9 km/h (3 Bft) 52,27 %
25.12.2021 08:24 0,7 C 0,0 C -0,6 C 97 % 1006,9 hPa 0,0 l/m 0 min 2 min 0 W/m 16,1 km/h (3 Bft) 93,48 %
25.12.2021 08:26 0,6 C 0,0 C -0,6 C 97 % 1006,8 hPa 0,0 l/m 0 min 2 min 0 W/m 19,3 km/h (3 Bft) 95,74 %
25.12.2021 08:28 0,6 C 0,0 C -0,6 C 97 % 1006,9 hPa 0,0 l/m 0 min 0 min 0 W/m 22,5 km/h (4 Bft) 95,74 %
25.12.2021 08:30 0,6 C 0,0 C -0,6 C 97 % 1006,9 hPa 0,0 l/m 0 min 2 min 0 W/m 19,3 km/h (3 Bft) 95,74 %
25.12.2021 08:32 0,6 C 0,0 C -0,6 C 97 % 1006,9 hPa 0,0 l/m 0 min 2 min 0 W/m 16,1 km/h (3 Bft) 93,62 %
25.12.2021 08:34 0,6 C 0,0 C -0,6 C 97 % 1007,0 hPa 0,0 l/m 0 min 2 min 0 W/m 16,1 km/h (3 Bft) 93,62 %
25.12.2021 08:36 0,6 C 0,0 C -0,6 C 97 % 1007,0 hPa 0,0 l/m 0 min 2 min 0 W/m 12,9 km/h (3 Bft) 95,65 %
25.12.2021 08:38 0,6 C 0,0 C -0,6 C 97 % 1006,9 hPa 0,0 l/m 0 min 0 min 0 W/m 16,1 km/h (3 Bft) 93,62 %
25.12.2021 08:40 0,6 C 0,0 C -0,6 C 97 % 1007,0 hPa 0,0 l/m 0 min 0 min 0 W/m 6,4 km/h (2 Bft) 93,62 %
25.12.2021 08:42 0,6 C 0,0 C -0,6 C 97 % 1007,0 hPa 0,0 l/m 0 min 2 min 0 W/m 12,9 km/h (3 Bft) 91,49 %
25.12.2021 08:43 0,6 C 0,0 C -0,6 C 98 % 1007,0 hPa 0,0 l/m 0 min 0 min 0 W/m 16,1 km/h (3 Bft) 93,62 %
25.12.2021 08:46 0,6 C 0,0 C -0,6 C 98 % 1007,0 hPa 0,0 l/m 0 min 0 min 0 W/m 16,1 km/h (3 Bft) 93,62 %
25.12.2021 08:48 0,6 C 0,0 C -0,6 C 98 % 1007,1 hPa 0,0 l/m 0 min 0 min 0 W/m 22,5 km/h (4 Bft) 95,65 %
25.12.2021 08:50 0,6 C 0,0 C -0,6 C 98 % 1007,1 hPa 0,0 l/m 0 min 0 min 4 W/m 19,3 km/h (3 Bft) 95,74 %
25.12.2021 08:52 0,6 C 0,0 C -0,6 C 98 % 1007,1 hPa 0,0 l/m 0 min 0 min 5 W/m 19,3 km/h (3 Bft) 95,74 %
25.12.2021 08:54 0,5 C 0,0 C -0,6 C 98 % 1007,1 hPa 0,0 l/m 0 min 0 min 7 W/m 12,9 km/h (3 Bft) 95,74 %
25.12.2021 08:56 0,5 C 0,0 C -0,6 C 98 % 1007,2 hPa 0,0 l/m 0 min 0 min 8 W/m 19,3 km/h (3 Bft) 95,74 %
25.12.2021 08:58 0,5 C 0,0 C -0,6 C 98 % 1007,2 hPa 0,0 l/m 0 min 0 min 9 W/m 22,5 km/h (4 Bft) 93,62 %
25.12.2021 09:00 0,4 C 0,0 C -0,6 C 98 % 1007,2 hPa 0,0 l/m 0 min 0 min 9 W/m 16,1 km/h (3 Bft) 97,83 %
25.12.2021 09:02 0,4 C 0,0 C -0,6 C 98 % 1007,2 hPa 0,0 l/m 0 min 0 min 11 W/m 16,1 km/h (3 Bft) 97,87 %
25.12.2021 09:04 0,4 C 0,0 C -0,6 C 97 % 1007,2 hPa 0,0 l/m 0 min 2 min 11 W/m 19,3 km/h (3 Bft) 97,87 %
25.12.2021 09:06 0,4 C 0,0 C -0,6 C 97 % 1007,2 hPa 0,2 l/m 0 min 0 min 12 W/m 12,9 km/h (3 Bft) 95,74 %
25.12.2021 09:08 0,4 C 0,0 C -0,6 C 97 % 1007,2 hPa 0,0 l/m 0 min 2 min 12 W/m 16,1 km/h (3 Bft) 97,87 %
25.12.2021 09:10 0,4 C 0,0 C -0,6 C 97 % 1007,2 hPa 0,0 l/m 0 min 0 min 14 W/m 22,5 km/h (4 Bft) 100,00 %
25.12.2021 09:12 0,4 C 0,0 C -0,6 C 98 % 1007,3 hPa 0,0 l/m 0 min 0 min 14 W/m 19,3 km/h (3 Bft) 97,83 %
25.12.2021 09:14 0,4 C 0,0 C -0,6 C 98 % 1007,3 hPa 0,0 l/m 0 min 0 min 14 W/m 19,3 km/h (3 Bft) 100,00 %
25.12.2021 09:16 0,3 C 0,0 C -0,6 C 98 % 1007,3 hPa 0,0 l/m 0 min 0 min 14 W/m 29,0 km/h (5 Bft) 97,87 %
25.12.2021 09:18 0,3 C 0,0 C -0,6 C 98 % 1007,3 hPa 0,0 l/m 0 min 0 min 15 W/m 22,5 km/h (4 Bft) 100,00 %
25.12.2021 09:20 0,3 C 0,0 C -0,6 C 98 % 1007,3 hPa 0,0 l/m 0 min 0 min 17 W/m 19,3 km/h (3 Bft) 100,00 %
25.12.2021 09:22 0,3 C 0,0 C -0,6 C 98 % 1007,3 hPa 0,0 l/m 0 min 0 min 18 W/m 22,5 km/h (4 Bft) 100,00 %
25.12.2021 09:24 0,3 C 0,0 C -0,6 C 98 % 1007,3 hPa 0,0 l/m 0 min 0 min 20 W/m 19,3 km/h (3 Bft) 97,87 %
25.12.2021 09:26 0,3 C 0,0 C -0,6 C 98 % 1007,3 hPa 0,0 l/m 0 min 0 min 22 W/m 12,9 km/h (3 Bft) 95,74 %
25.12.2021 09:28 0,3 C 0,0 C -0,6 C 98 % 1007,4 hPa 0,0 l/m 0 min 0 min 24 W/m 16,1 km/h (3 Bft) 100,00 %
25.12.2021 09:30 0,3 C 0,0 C -0,6 C 98 % 1007,5 hPa 0,0 l/m 0 min 0 min 26 W/m 12,9 km/h (3 Bft) 100,00 %
25.12.2021 09:32 0,3 C 0,0 C -0,6 C 98 % 1007,5 hPa 0,0 l/m 0 min 0 min 29 W/m 16,1 km/h (3 Bft) 97,87 %
25.12.2021 09:34 0,3 C 0,0 C -0,6 C 98 % 1007,5 hPa 0,0 l/m 0 min 0 min 30 W/m 12,9 km/h (3 Bft) 100,00 %
25.12.2021 09:36 0,3 C 0,0 C -0,6 C 98 % 1007,5 hPa 0,0 l/m 0 min 0 min 33 W/m 16,1 km/h (3 Bft) 97,83 %
25.12.2021 09:38 0,3 C 0,0 C -0,6 C 98 % 1007,6 hPa 0,0 l/m 0 min 0 min 35 W/m 22,5 km/h (4 Bft) 100,00 %
25.12.2021 09:40 0,3 C 0,0 C -0,6 C 98 % 1007,6 hPa 0,0 l/m 0 min 0 min 38 W/m 19,3 km/h (3 Bft) 100,00 %
25.12.2021 09:42 0,3 C 0,0 C -0,6 C 98 % 1007,6 hPa 0,0 l/m 0 min 0 min 39 W/m 16,1 km/h (3 Bft) 97,87 %
25.12.2021 09:44 0,3 C 0,0 C -0,6 C 98 % 1007,6 hPa 0,0 l/m 0 min 0 min 39 W/m 25,7 km/h (4 Bft) 100,00 %
25.12.2021 09:46 0,3 C 0,0 C -0,6 C 98 % 1007,6 hPa 0,0 l/m 0 min 0 min 40 W/m 19,3 km/h (3 Bft) 100,00 %
25.12.2021 09:48 0,3 C 0,0 C -0,6 C 98 % 1007,7 hPa 0,0 l/m 0 min 0 min 39 W/m 19,3 km/h (3 Bft) 97,87 %
25.12.2021 09:50 0,3 C 0,0 C -0,6 C 98 % 1007,7 hPa 0,0 l/m 0 min 0 min 37 W/m 19,3 km/h (3 Bft) 100,00 %
25.12.2021 09:52 0,3 C 0,0 C -0,6 C 98 % 1007,6 hPa 0,0 l/m 0 min 2 min 36 W/m 12,9 km/h (3 Bft) 57,45 %
25.12.2021 09:54 0,3 C 0,0 C -0,6 C 98 % 1007,7 hPa 0,0 l/m 0 min 2 min 33 W/m 29,0 km/h (5 Bft) 100,00 %
25.12.2021 09:56 0,3 C 0,0 C -0,6 C 98 % 1007,7 hPa 0,0 l/m 0 min 0 min 34 W/m 12,9 km/h (3 Bft) 100,00 %
25.12.2021 09:58 0,3 C 0,0 C -0,6 C 98 % 1007,7 hPa 0,0 l/m 0 min 0 min 33 W/m 12,9 km/h (3 Bft) 100,00 %
25.12.2021 10:00 0,3 C 0,0 C -0,6 C 98 % 1007,8 hPa 0,0 l/m 0 min 0 min 33 W/m 16,1 km/h (3 Bft) 100,00 %
25.12.2021 10:02 0,3 C 0,0 C -0,6 C 98 % 1007,8 hPa 0,0 l/m 0 min 0 min 34 W/m 12,9 km/h (3 Bft) 97,87 %
25.12.2021 10:04 0,3 C 0,0 C -0,6 C 98 % 1007,7 hPa 0,0 l/m 0 min 0 min 36 W/m 16,1 km/h (3 Bft) 100,00 %
25.12.2021 10:06 0,3 C 0,0 C -0,6 C 98 % 1007,8 hPa 0,0 l/m 0 min 0 min 38 W/m 16,1 km/h (3 Bft) 100,00 %
25.12.2021 10:08 0,3 C 0,0 C -0,6 C 98 % 1007,8 hPa 0,0 l/m 0 min 0 min 40 W/m 22,5 km/h (4 Bft) 100,00 %
25.12.2021 10:10 0,3 C 0,0 C -0,6 C 98 % 1007,8 hPa 0,2 l/m 0 min 0 min 42 W/m 19,3 km/h (3 Bft) 100,00 %
25.12.2021 10:12 0,3 C 0,0 C -0,6 C 98 % 1007,8 hPa 0,0 l/m 0 min 0 min 44 W/m 19,3 km/h (3 Bft) 100,00 %
25.12.2021 10:14 0,3 C 0,0 C -0,6 C 98 % 1007,9 hPa 0,0 l/m 0 min 0 min 42 W/m 19,3 km/h (3 Bft) 100,00 %
25.12.2021 10:16 0,3 C 0,0 C -0,6 C 98 % 1007,9 hPa 0,0 l/m 0 min 0 min 43 W/m 16,1 km/h (3 Bft) 97,87 %
25.12.2021 10:18 0,3 C 0,0 C -0,6 C 98 % 1007,9 hPa 0,0 l/m 0 min 0 min 43 W/m 19,3 km/h (3 Bft) 95,74 %
25.12.2021 10:20 0,3 C 0,0 C -0,6 C 98 % 1007,9 hPa 0,0 l/m 0 min 0 min 44 W/m 19,3 km/h (3 Bft) 100,00 %
25.12.2021 10:22 0,3 C 0,0 C -0,6 C 98 % 1007,9 hPa 0,0 l/m 0 min 0 min 46 W/m 19,3 km/h (3 Bft) 100,00 %
25.12.2021 10:24 0,3 C 0,0 C -0,6 C 98 % 1007,9 hPa 0,0 l/m 0 min 0 min 46 W/m 16,1 km/h (3 Bft) 100,00 %
25.12.2021 10:26 0,3 C 0,0 C -0,6 C 98 % 1007,9 hPa 0,0 l/m 0 min 2 min 45 W/m 25,7 km/h (4 Bft) 97,87 %
25.12.2021 10:28 0,3 C 0,0 C -0,6 C 98 % 1008,0 hPa 0,0 l/m 0 min 0 min 45 W/m 16,1 km/h (3 Bft) 95,74 %
25.12.2021 10:30 0,3 C 0,0 C -0,6 C 98 % 1008,0 hPa 0,0 l/m 0 min 0 min 46 W/m 12,9 km/h (3 Bft) 95,74 %
25.12.2021 10:32 0,3 C 0,0 C -0,6 C 98 % 1008,0 hPa 0,0 l/m 0 min 0 min 45 W/m 12,9 km/h (3 Bft) 95,74 %
25.12.2021 10:34 0,3 C 0,0 C -0,6 C 98 % 1008,1 hPa 0,0 l/m 0 min 0 min 46 W/m 16,1 km/h (3 Bft) 93,62 %
25.12.2021 10:36 0,3 C 0,0 C -0,6 C 98 % 1008,1 hPa 0,0 l/m 0 min 0 min 44 W/m 22,5 km/h (4 Bft) 93,62 %
25.12.2021 10:38 0,3 C 0,0 C -0,6 C 98 % 1008,1 hPa 0,0 l/m 0 min 0 min 44 W/m 12,9 km/h (3 Bft) 52,17 %
25.12.2021 10:40 0,3 C 0,0 C -0,6 C 98 % 1008,0 hPa 0,0 l/m 0 min 0 min 46 W/m 22,5 km/h (4 Bft) 95,74 %
25.12.2021 10:42 0,3 C 0,0 C -0,6 C 98 % 1008,1 hPa 0,0 l/m 0 min 0 min 49 W/m 16,1 km/h (3 Bft) 95,74 %
25.12.2021 10:44 0,3 C 0,0 C -0,6 C 98 % 1008,1 hPa 0,0 l/m 0 min 0 min 47 W/m 19,3 km/h (3 Bft) 91,30 %
25.12.2021 10:46 0,3 C 0,0 C -0,6 C 98 % 1008,1 hPa 0,0 l/m 0 min 0 min 50 W/m 16,1 km/h (3 Bft) 95,74 %
25.12.2021 10:48 0,3 C 0,0 C -0,6 C 98 % 1008,1 hPa 0,2 l/m 0 min 0 min 51 W/m 16,1 km/h (3 Bft) 93,62 %
25.12.2021 10:50 0,3 C 0,0 C -0,6 C 98 % 1008,1 hPa 0,0 l/m 0 min 0 min 51 W/m 22,5 km/h (4 Bft) 95,74 %
25.12.2021 10:52 0,3 C 0,0 C -0,6 C 98 % 1008,2 hPa 0,0 l/m 0 min 0 min 51 W/m 16,1 km/h (3 Bft) 95,74 %
25.12.2021 10:54 0,3 C 0,0 C -0,6 C 98 % 1008,2 hPa 0,0 l/m 0 min 0 min 53 W/m 12,9 km/h (3 Bft) 95,74 %
25.12.2021 10:56 0,3 C 0,0 C -0,6 C 98 % 1008,2 hPa 0,0 l/m 0 min 0 min 54 W/m 12,9 km/h (3 Bft) 95,65 %
25.12.2021 10:58 0,3 C 0,0 C -0,6 C 98 % 1008,3 hPa 0,0 l/m 0 min 0 min 53 W/m 19,3 km/h (3 Bft) 97,87 %
25.12.2021 11:00 0,3 C 0,0 C -0,6 C 98 % 1008,3 hPa 0,0 l/m 0 min 0 min 53 W/m 22,5 km/h (4 Bft) 97,87 %
25.12.2021 11:02 0,3 C 0,0 C -0,6 C 98 % 1008,3 hPa 0,0 l/m 0 min 0 min 52 W/m 12,9 km/h (3 Bft) 97,87 %
25.12.2021 11:04 0,3 C 0,0 C -0,6 C 98 % 1008,3 hPa 0,0 l/m 0 min 2 min 53 W/m 16,1 km/h (3 Bft) 100,00 %
25.12.2021 11:06 0,3 C 0,0 C -0,6 C 98 % 1008,3 hPa 0,0 l/m 0 min 0 min 55 W/m 12,9 km/h (3 Bft) 100,00 %
25.12.2021 11:08 0,3 C 0,0 C -0,6 C 98 % 1008,3 hPa 0,0 l/m 0 min 0 min 56 W/m 19,3 km/h (3 Bft) 100,00 %
25.12.2021 11:10 0,3 C 0,0 C -0,6 C 98 % 1008,3 hPa 0,0 l/m 0 min 0 min 55 W/m 19,3 km/h (3 Bft) 100,00 %
25.12.2021 11:12 0,3 C 0,0 C -0,6 C 98 % 1008,3 hPa 0,0 l/m 0 min 0 min 53 W/m 16,1 km/h (3 Bft) 100,00 %
25.12.2021 11:14 0,3 C 0,0 C -0,6 C 98 % 1008,4 hPa 0,0 l/m 0 min 0 min 53 W/m 16,1 km/h (3 Bft) 100,00 %
25.12.2021 11:16 0,3 C 0,6 C -0,6 C 98 % 1008,4 hPa 0,0 l/m 0 min 0 min 50 W/m 19,3 km/h (3 Bft) 100,00 %
25.12.2021 11:18 0,3 C 0,6 C -0,6 C 98 % 1008,3 hPa 0,0 l/m 0 min 0 min 51 W/m 12,9 km/h (3 Bft) 97,83 %
25.12.2021 11:20 0,3 C 0,6 C -0,6 C 98 % 1008,3 hPa 0,0 l/m 0 min 0 min 51 W/m 16,1 km/h (3 Bft) 100,00 %
25.12.2021 11:22 0,3 C 0,0 C -0,6 C 98 % 1008,3 hPa 0,0 l/m 0 min 0 min 53 W/m 16,1 km/h (3 Bft) 98,00 %
25.12.2021 11:24 0,4 C 0,0 C -0,6 C 98 % 1008,3 hPa 0,0 l/m 0 min 0 min 53 W/m 16,1 km/h (3 Bft) 53,49 %
25.12.2021 11:26 0,3 C 0,0 C -0,6 C 98 % 1008,2 hPa 0,0 l/m 0 min 0 min 54 W/m 16,1 km/h (3 Bft) 97,87 %
25.12.2021 11:28 0,3 C 0,0 C -0,6 C 98 % 1008,3 hPa 0,0 l/m 0 min 0 min 55 W/m 16,1 km/h (3 Bft) 97,83 %
25.12.2021 11:30 0,3 C 0,0 C -0,6 C 98 % 1008,2 hPa 0,0 l/m 0 min 0 min 57 W/m 19,3 km/h (3 Bft) 97,87 %
25.12.2021 11:32 0,3 C 0,0 C -0,6 C 98 % 1008,2 hPa 0,0 l/m 0 min 0 min 56 W/m 16,1 km/h (3 Bft) 97,87 %
25.12.2021 11:34 0,4 C 0,6 C -0,6 C 98 % 1008,1 hPa 0,2 l/m 0 min 0 min 57 W/m 12,9 km/h (3 Bft) 97,87 %
25.12.2021 11:36 0,4 C 0,6 C -0,6 C 98 % 1008,1 hPa 0,0 l/m 0 min 0 min 57 W/m 19,3 km/h (3 Bft) 93,62 %
25.12.2021 11:38 0,4 C 0,6 C -0,6 C 98 % 1008,1 hPa 0,0 l/m 0 min 0 min 58 W/m 22,5 km/h (4 Bft) 97,87 %
25.12.2021 11:40 0,4 C 0,6 C -0,6 C 98 % 1008,1 hPa 0,0 l/m 0 min 0 min 59 W/m 16,1 km/h (3 Bft) 95,74 %
25.12.2021 11:42 0,4 C 0,6 C -0,6 C 98 % 1008,1 hPa 0,0 l/m 0 min 0 min 60 W/m 16,1 km/h (3 Bft) 97,83 %
25.12.2021 11:44 0,4 C 0,6 C -0,6 C 98 % 1008,1 hPa 0,0 l/m 0 min 0 min 61 W/m 19,3 km/h (3 Bft) 95,74 %
25.12.2021 11:46 0,4 C 0,6 C -0,6 C 98 % 1008,1 hPa 0,0 l/m 0 min 0 min 65 W/m 16,1 km/h (3 Bft) 97,87 %
25.12.2021 11:48 0,4 C 0,6 C -0,6 C 98 % 1008,1 hPa 0,0 l/m 0 min 0 min 64 W/m 16,1 km/h (3 Bft) 97,73 %
25.12.2021 11:50 0,4 C 0,6 C -0,6 C 98 % 1008,1 hPa 0,0 l/m 0 min 0 min 67 W/m 12,9 km/h (3 Bft) 95,74 %
25.12.2021 11:52 0,4 C 0,6 C -0,6 C 98 % 1008,1 hPa 0,0 l/m 0 min 0 min 70 W/m 16,1 km/h (3 Bft) 95,92 %
25.12.2021 11:54 0,4 C 0,6 C -0,6 C 98 % 1008,1 hPa 0,0 l/m 0 min 0 min 72 W/m 12,9 km/h (3 Bft) 97,87 %
25.12.2021 11:56 0,4 C 0,6 C -0,6 C 98 % 1008,1 hPa 0,0 l/m 0 min 0 min 70 W/m 12,9 km/h (3 Bft) 97,87 %
25.12.2021 11:58 0,4 C 0,6 C -0,6 C 98 % 1008,1 hPa 0,0 l/m 0 min 0 min 69 W/m 19,3 km/h (3 Bft) 97,87 %
25.12.2021 12:00 0,4 C 0,6 C -0,6 C 98 % 1008,1 hPa 0,0 l/m 0 min 0 min 70 W/m 16,1 km/h (3 Bft) 97,87 %
25.12.2021 12:02 0,4 C 0,6 C -0,6 C 98 % 1008,1 hPa 0,0 l/m 0 min 0 min 71 W/m 16,1 km/h (3 Bft) 97,87 %
25.12.2021 12:04 0,4 C 0,6 C -0,6 C 98 % 1008,1 hPa 0,0 l/m 0 min 0 min 70 W/m 16,1 km/h (3 Bft) 97,87 %
25.12.2021 12:08 0,4 C 0,6 C -0,6 C 98 % 1008,2 hPa 0,0 l/m 0 min 0 min 72 W/m 22,5 km/h (4 Bft) 98,92 %
25.12.2021 12:10 0,4 C 0,6 C -0,6 C 97 % 1008,2 hPa 0,0 l/m 0 min 0 min 70 W/m 19,3 km/h (3 Bft) 91,49 %
25.12.2021 12:12 0,4 C 0,6 C -0,6 C 97 % 1008,3 hPa 0,0 l/m 0 min 0 min 70 W/m 19,3 km/h (3 Bft) 97,87 %
25.12.2021 12:14 0,3 C 0,6 C -0,6 C 97 % 1008,3 hPa 0,2 l/m 0 min 0 min 70 W/m 16,1 km/h (3 Bft) 95,74 %
25.12.2021 12:16 0,4 C 0,6 C -0,6 C 97 % 1008,3 hPa 0,0 l/m 0 min 0 min 69 W/m 12,9 km/h (3 Bft) 95,74 %
25.12.2021 12:18 0,4 C 0,6 C -0,6 C 97 % 1008,3 hPa 0,0 l/m 0 min 0 min 70 W/m 16,1 km/h (3 Bft) 95,65 %
25.12.2021 12:20 0,4 C 0,6 C -0,6 C 97 % 1008,4 hPa 0,0 l/m 0 min 0 min 72 W/m 12,9 km/h (3 Bft) 97,87 %
25.12.2021 12:22 0,4 C 0,6 C -0,6 C 97 % 1008,4 hPa 0,0 l/m 0 min 0 min 74 W/m 16,1 km/h (3 Bft) 97,87 %
25.12.2021 12:24 0,4 C 0,6 C -0,6 C 97 % 1008,4 hPa 0,0 l/m 0 min 0 min 70 W/m 9,7 km/h (2 Bft) 93,62 %
25.12.2021 12:26 0,4 C 0,6 C -0,6 C 97 % 1008,4 hPa 0,0 l/m 0 min 0 min 72 W/m 12,9 km/h (3 Bft) 97,87 %
25.12.2021 12:28 0,4 C 0,6 C -0,6 C 97 % 1008,5 hPa 0,0 l/m 0 min 0 min 71 W/m 12,9 km/h (3 Bft) 97,83 %
25.12.2021 12:30 0,4 C 0,6 C -0,6 C 97 % 1008,5 hPa 0,0 l/m 0 min 0 min 63 W/m 12,9 km/h (3 Bft) 97,87 %
25.12.2021 12:32 0,4 C 0,6 C -0,6 C 97 % 1008,5 hPa 0,0 l/m 0 min 0 min 52 W/m 16,1 km/h (3 Bft) 95,74 %
25.12.2021 12:34 0,4 C 0,6 C -0,6 C 97 % 1008,6 hPa 0,0 l/m 0 min 0 min 43 W/m 19,3 km/h (3 Bft) 95,74 %
25.12.2021 12:36 0,4 C 0,6 C -0,6 C 97 % 1008,6 hPa 0,0 l/m 0 min 0 min 37 W/m 12,9 km/h (3 Bft) 97,87 %
25.12.2021 12:38 0,4 C 0,6 C -0,6 C 97 % 1008,6 hPa 0,0 l/m 0 min 0 min 35 W/m 22,5 km/h (4 Bft) 97,62 %
25.12.2021 12:40 0,4 C 0,6 C -0,6 C 97 % 1008,6 hPa 0,0 l/m 0 min 0 min 40 W/m 16,1 km/h (3 Bft) 95,74 %
25.12.2021 12:42 0,4 C 0,6 C -0,6 C 97 % 1008,6 hPa 0,0 l/m 0 min 0 min 49 W/m 16,1 km/h (3 Bft) 93,62 %
25.12.2021 12:44 0,4 C 0,6 C -0,6 C 97 % 1008,6 hPa 0,0 l/m 0 min 0 min 55 W/m 19,3 km/h (3 Bft) 96,00 %
25.12.2021 12:46 0,4 C 0,6 C -0,6 C 97 % 1008,6 hPa 0,0 l/m 0 min 0 min 68 W/m 16,1 km/h (3 Bft) 97,87 %
25.12.2021 12:48 0,3 C 0,6 C -0,6 C 97 % 1008,5 hPa 0,0 l/m 0 min 0 min 75 W/m 16,1 km/h (3 Bft) 97,87 %
25.12.2021 12:50 0,4 C 0,6 C -0,6 C 97 % 1008,5 hPa 0,0 l/m 0 min 0 min 76 W/m 16,1 km/h (3 Bft) 93,75 %
25.12.2021 12:52 0,4 C 0,6 C -0,6 C 97 % 1008,4 hPa 0,0 l/m 0 min 0 min 82 W/m 19,3 km/h (3 Bft) 97,83 %
25.12.2021 12:54 0,4 C 0,6 C -0,6 C 97 % 1008,4 hPa 0,0 l/m 0 min 0 min 92 W/m 22,5 km/h (4 Bft) 97,87 %
25.12.2021 12:56 0,4 C 0,6 C -0,6 C 96 % 1008,4 hPa 0,0 l/m 0 min 0 min 101 W/m 19,3 km/h (3 Bft) 97,87 %
25.12.2021 12:58 0,4 C 1,1 C -0,6 C 96 % 1008,4 hPa 0,0 l/m 0 min 0 min 103 W/m 19,3 km/h (3 Bft) 97,87 %
25.12.2021 13:00 0,4 C 1,1 C -0,6 C 96 % 1008,4 hPa 0,0 l/m 0 min 0 min 94 W/m 22,5 km/h (4 Bft) 97,87 %
25.12.2021 13:02 0,4 C 1,1 C -0,6 C 96 % 1008,3 hPa 0,0 l/m 0 min 0 min 89 W/m 25,7 km/h (4 Bft) 97,62 %
25.12.2021 13:04 0,4 C 1,1 C -0,6 C 96 % 1008,3 hPa 0,0 l/m 0 min 0 min 97 W/m 16,1 km/h (3 Bft) 97,87 %
25.12.2021 13:06 0,4 C 1,1 C -0,6 C 96 % 1008,3 hPa 0,0 l/m 0 min 0 min 104 W/m 22,5 km/h (4 Bft) 95,74 %
25.12.2021 13:08 0,4 C 1,1 C 0,0 C 96 % 1008,3 hPa 0,0 l/m 0 min 0 min 104 W/m 19,3 km/h (3 Bft) 97,87 %
25.12.2021 13:10 0,4 C 1,1 C -0,6 C 96 % 1008,3 hPa 0,0 l/m 0 min 0 min 105 W/m 19,3 km/h (3 Bft) 98,00 %
25.12.2021 13:12 0,4 C 1,1 C -0,6 C 96 % 1008,3 hPa 0,0 l/m 0 min 0 min 109 W/m 22,5 km/h (4 Bft) 97,83 %
25.12.2021 13:14 0,4 C 1,1 C -0,6 C 96 % 1008,2 hPa 0,0 l/m 0 min 0 min 104 W/m 22,5 km/h (4 Bft) 95,74 %
25.12.2021 13:16 0,4 C 1,1 C -0,6 C 96 % 1008,2 hPa 0,0 l/m 0 min 0 min 94 W/m 16,1 km/h (3 Bft) 97,87 %
25.12.2021 13:18 0,4 C 1,1 C -0,6 C 96 % 1008,2 hPa 0,0 l/m 0 min 0 min 99 W/m 19,3 km/h (3 Bft) 100,00 %
25.12.2021 13:20 0,5 C 1,1 C 0,0 C 96 % 1008,2 hPa 0,0 l/m 0 min 0 min 101 W/m 16,1 km/h (3 Bft) 100,00 %
25.12.2021 13:22 0,5 C 1,1 C -0,6 C 96 % 1008,2 hPa 0,0 l/m 0 min 0 min 100 W/m 22,5 km/h (4 Bft) 100,00 %
25.12.2021 13:24 0,5 C 1,1 C -0,6 C 96 % 1008,2 hPa 0,0 l/m 0 min 0 min 92 W/m 16,1 km/h (3 Bft) 100,00 %
25.12.2021 13:26 0,5 C 1,1 C -0,6 C 96 % 1008,2 hPa 0,0 l/m 0 min 0 min 89 W/m 12,9 km/h (3 Bft) 97,96 %
25.12.2021 13:28 0,4 C 1,1 C -0,6 C 96 % 1008,2 hPa 0,0 l/m 0 min 0 min 80 W/m 22,5 km/h (4 Bft) 100,00 %
25.12.2021 13:30 0,4 C 1,1 C -0,6 C 95 % 1008,2 hPa 0,0 l/m 0 min 0 min 81 W/m 22,5 km/h (4 Bft) 100,00 %
25.12.2021 13:32 0,4 C 1,1 C -0,6 C 95 % 1008,2 hPa 0,0 l/m 0 min 0 min 84 W/m 19,3 km/h (3 Bft) 100,00 %
25.12.2021 13:34 0,5 C 0,6 C -0,6 C 95 % 1008,2 hPa 0,0 l/m 0 min 0 min 69 W/m 16,1 km/h (3 Bft) 100,00 %
25.12.2021 13:36 0,4 C 0,6 C -0,6 C 95 % 1008,3 hPa 0,0 l/m 0 min 0 min 55 W/m 22,5 km/h (4 Bft) 100,00 %
25.12.2021 13:38 0,4 C 0,6 C -0,6 C 95 % 1008,3 hPa 0,0 l/m 0 min 0 min 43 W/m 19,3 km/h (3 Bft) 100,00 %
25.12.2021 13:40 0,4 C 0,6 C -0,6 C 95 % 1008,4 hPa 0,0 l/m 0 min 0 min 38 W/m 16,1 km/h (3 Bft) 100,00 %
25.12.2021 13:42 0,4 C 0,6 C -0,6 C 95 % 1008,4 hPa 0,0 l/m 0 min 0 min 37 W/m 25,7 km/h (4 Bft) 100,00 %
25.12.2021 13:44 0,4 C 0,6 C -0,6 C 95 % 1008,4 hPa 0,0 l/m 0 min 0 min 39 W/m 19,3 km/h (3 Bft) 100,00 %
25.12.2021 13:46 0,4 C 0,6 C -0,6 C 95 % 1008,5 hPa 0,0 l/m 0 min 0 min 43 W/m 19,3 km/h (3 Bft) 100,00 %
25.12.2021 13:48 0,4 C 0,6 C -0,6 C 95 % 1008,6 hPa 0,0 l/m 0 min 0 min 49 W/m 12,9 km/h (3 Bft) 100,00 %
25.12.2021 13:50 0,4 C 0,6 C -0,6 C 95 % 1008,6 hPa 0,0 l/m 0 min 0 min 58 W/m 12,9 km/h (3 Bft) 100,00 %
25.12.2021 13:52 0,4 C 0,6 C -0,6 C 95 % 1008,6 hPa 0,0 l/m 0 min 0 min 73 W/m 16,1 km/h (3 Bft) 100,00 %
25.12.2021 13:54 0,4 C 0,6 C -0,6 C 95 % 1008,5 hPa 0,2 l/m 0 min 0 min 79 W/m 22,5 km/h (4 Bft) 97,96 %
25.12.2021 13:56 0,5 C 0,6 C -0,6 C 94 % 1008,5 hPa 0,0 l/m 0 min 0 min 77 W/m 12,9 km/h (3 Bft) 100,00 %
25.12.2021 13:58 0,5 C 0,6 C -0,6 C 94 % 1008,4 hPa 0,0 l/m 0 min 0 min 71 W/m 16,1 km/h (3 Bft) 100,00 %
25.12.2021 14:00 0,5 C 0,6 C -0,6 C 95 % 1008,4 hPa 0,0 l/m 0 min 0 min 66 W/m 16,1 km/h (3 Bft) 100,00 %
25.12.2021 14:02 0,5 C 0,6 C -0,6 C 94 % 1008,4 hPa 0,0 l/m 0 min 0 min 62 W/m 19,3 km/h (3 Bft) 98,00 %
25.12.2021 14:04 0,5 C 0,6 C -0,6 C 94 % 1008,4 hPa 0,0 l/m 0 min 0 min 62 W/m 19,3 km/h (3 Bft) 97,87 %
25.12.2021 14:06 0,6 C 0,6 C -0,6 C 94 % 1008,4 hPa 0,0 l/m 0 min 0 min 59 W/m 19,3 km/h (3 Bft) 97,96 %
25.12.2021 14:08 0,6 C 0,6 C -0,6 C 94 % 1008,4 hPa 0,0 l/m 0 min 0 min 54 W/m 19,3 km/h (3 Bft) 95,74 %
25.12.2021 14:10 0,6 C 0,6 C -0,6 C 94 % 1008,5 hPa 0,0 l/m 0 min 0 min 54 W/m 12,9 km/h (3 Bft) 97,87 %
25.12.2021 14:12 0,6 C 0,6 C -0,6 C 94 % 1008,4 hPa 0,0 l/m 0 min 0 min 51 W/m 12,9 km/h (3 Bft) 97,56 %
25.12.2021 14:14 0,6 C 0,6 C -0,6 C 94 % 1008,4 hPa 0,0 l/m 0 min 0 min 46 W/m 19,3 km/h (3 Bft) 97,87 %
25.12.2021 14:16 0,6 C 0,6 C -0,6 C 94 % 1008,5 hPa 0,0 l/m 0 min 0 min 43 W/m 19,3 km/h (3 Bft) 95,74 %
25.12.2021 14:18 0,6 C 0,6 C -0,6 C 94 % 1008,5 hPa 0,0 l/m 0 min 0 min 44 W/m 16,1 km/h (3 Bft) 98,00 %
25.12.2021 14:20 0,5 C 0,6 C -0,6 C 94 % 1008,5 hPa 0,0 l/m 0 min 0 min 46 W/m 19,3 km/h (3 Bft) 97,87 %
25.12.2021 14:22 0,5 C 0,6 C -0,6 C 94 % 1008,5 hPa 0,0 l/m 0 min 0 min 47 W/m 19,3 km/h (3 Bft) 97,96 %
25.12.2021 14:24 0,5 C 0,6 C -0,6 C 94 % 1008,6 hPa 0,0 l/m 0 min 0 min 52 W/m 16,1 km/h (3 Bft) 95,65 %
25.12.2021 14:26 0,4 C 0,6 C -0,6 C 94 % 1008,6 hPa 0,0 l/m 0 min 0 min 57 W/m 16,1 km/h (3 Bft) 95,74 %
25.12.2021 14:28 0,5 C 0,6 C -0,6 C 94 % 1008,6 hPa 0,0 l/m 0 min 0 min 62 W/m 22,5 km/h (4 Bft) 97,87 %
25.12.2021 14:30 0,5 C 0,6 C -0,6 C 94 % 1008,6 hPa 0,0 l/m 0 min 0 min 63 W/m 22,5 km/h (4 Bft) 100,00 %
25.12.2021 14:32 0,5 C 0,6 C -0,6 C 93 % 1008,6 hPa 0,0 l/m 0 min 0 min 63 W/m 12,9 km/h (3 Bft) 100,00 %
25.12.2021 14:34 0,5 C 0,6 C -0,6 C 93 % 1008,7 hPa 0,0 l/m 0 min 0 min 63 W/m 9,7 km/h (2 Bft) 100,00 %
25.12.2021 14:36 0,6 C 0,6 C -0,6 C 94 % 1008,6 hPa 0,0 l/m 0 min 0 min 67 W/m 16,1 km/h (3 Bft) 100,00 %
25.12.2021 14:38 0,6 C 0,6 C -0,6 C 94 % 1008,6 hPa 0,0 l/m 0 min 0 min 68 W/m 19,3 km/h (3 Bft) 97,87 %
25.12.2021 14:40 0,6 C 0,6 C -0,6 C 94 % 1008,6 hPa 0,0 l/m 0 min 0 min 69 W/m 29,0 km/h (5 Bft) 100,00 %
25.12.2021 14:42 0,6 C 0,6 C -0,6 C 93 % 1008,6 hPa 0,0 l/m 0 min 0 min 70 W/m 12,9 km/h (3 Bft) 97,87 %
25.12.2021 14:44 0,5 C 0,6 C -0,6 C 93 % 1008,6 hPa 0,0 l/m 0 min 0 min 73 W/m 12,9 km/h (3 Bft) 97,96 %
25.12.2021 14:46 0,5 C 0,6 C -0,6 C 93 % 1008,6 hPa 0,0 l/m 0 min 0 min 77 W/m 12,9 km/h (3 Bft) 97,87 %
25.12.2021 14:48 0,6 C 1,1 C -0,6 C 93 % 1008,6 hPa 0,0 l/m 0 min 0 min 81 W/m 9,7 km/h (2 Bft) 100,00 %
25.12.2021 14:50 0,6 C 1,1 C -0,6 C 93 % 1008,6 hPa 0,0 l/m 0 min 0 min 81 W/m 12,9 km/h (3 Bft) 100,00 %
25.12.2021 14:52 0,6 C 1,1 C -0,6 C 93 % 1008,6 hPa 0,0 l/m 0 min 0 min 81 W/m 19,3 km/h (3 Bft) 97,87 %
25.12.2021 14:54 0,6 C 1,1 C -0,6 C 93 % 1008,6 hPa 0,0 l/m 0 min 0 min 82 W/m 16,1 km/h (3 Bft) 100,00 %
25.12.2021 14:56 0,6 C 1,1 C -0,6 C 93 % 1008,6 hPa 0,0 l/m 0 min 0 min 83 W/m 12,9 km/h (3 Bft) 95,65 %
25.12.2021 14:58 0,6 C 1,1 C -0,6 C 93 % 1008,6 hPa 0,0 l/m 0 min 0 min 84 W/m 16,1 km/h (3 Bft) 95,74 %
25.12.2021 15:00 0,6 C 1,1 C -0,6 C 93 % 1008,6 hPa 0,0 l/m 0 min 0 min 83 W/m 22,5 km/h (4 Bft) 95,92 %
25.12.2021 15:02 0,6 C 1,1 C -0,6 C 93 % 1008,6 hPa 0,0 l/m 0 min 0 min 82 W/m 9,7 km/h (2 Bft) 95,74 %
25.12.2021 15:04 0,6 C 1,1 C -0,6 C 92 % 1008,6 hPa 0,0 l/m 0 min 0 min 79 W/m 9,7 km/h (2 Bft) 93,62 %
25.12.2021 15:06 0,6 C 1,1 C -0,6 C 93 % 1008,6 hPa 0,0 l/m 0 min 0 min 77 W/m 16,1 km/h (3 Bft) 93,62 %
25.12.2021 15:08 0,6 C 1,1 C -0,6 C 93 % 1008,6 hPa 0,0 l/m 0 min 0 min 72 W/m 12,9 km/h (3 Bft) 95,74 %
25.12.2021 15:10 0,7 C 1,1 C -0,6 C 93 % 1008,6 hPa 0,0 l/m 0 min 0 min 69 W/m 12,9 km/h (3 Bft) 92,68 %
25.12.2021 15:12 0,6 C 1,1 C -0,6 C 92 % 1008,6 hPa 0,0 l/m 0 min 0 min 69 W/m 12,9 km/h (3 Bft) 94,00 %
25.12.2021 15:14 0,6 C 1,1 C -0,6 C 92 % 1008,6 hPa 0,0 l/m 0 min 0 min 69 W/m 9,7 km/h (2 Bft) 93,62 %
25.12.2021 15:16 0,7 C 1,1 C -0,6 C 92 % 1008,6 hPa 0,0 l/m 0 min 0 min 70 W/m 12,9 km/h (3 Bft) 95,92 %
25.12.2021 15:18 0,6 C 1,1 C -0,6 C 92 % 1008,6 hPa 0,0 l/m 0 min 0 min 70 W/m 16,1 km/h (3 Bft) 95,74 %
25.12.2021 15:20 0,6 C 1,1 C -0,6 C 92 % 1008,6 hPa 0,0 l/m 2 min 0 min 69 W/m 12,9 km/h (3 Bft) 93,62 %
25.12.2021 15:22 0,7 C 1,1 C -0,6 C 92 % 1008,6 hPa 0,0 l/m 0 min 0 min 65 W/m 9,7 km/h (2 Bft) 95,65 %
25.12.2021 15:24 0,6 C 1,1 C -0,6 C 92 % 1008,5 hPa 0,0 l/m 0 min 0 min 59 W/m 9,7 km/h (2 Bft) 95,74 %
25.12.2021 15:26 0,6 C 1,1 C -0,6 C 92 % 1008,5 hPa 0,0 l/m 0 min 0 min 57 W/m 16,1 km/h (3 Bft) 93,62 %
25.12.2021 15:28 0,7 C 1,1 C -0,6 C 92 % 1008,5 hPa 0,0 l/m 0 min 0 min 59 W/m 22,5 km/h (4 Bft) 95,74 %
25.12.2021 15:30 0,6 C 1,1 C -0,6 C 92 % 1008,6 hPa 0,0 l/m 2 min 0 min 62 W/m 19,3 km/h (3 Bft) 93,62 %
25.12.2021 15:32 0,7 C 1,1 C -0,6 C 92 % 1008,6 hPa 0,0 l/m 2 min 0 min 60 W/m 16,1 km/h (3 Bft) 95,65 %
25.12.2021 15:34 0,6 C 1,1 C -0,6 C 92 % 1008,7 hPa 0,0 l/m 2 min 0 min 56 W/m 9,7 km/h (2 Bft) 97,62 %
25.12.2021 15:36 0,6 C 1,1 C -0,6 C 92 % 1008,7 hPa 0,0 l/m 2 min 0 min 54 W/m 9,7 km/h (2 Bft) 95,74 %
25.12.2021 15:38 0,7 C 1,1 C -0,6 C 92 % 1008,6 hPa 0,0 l/m 0 min 0 min 50 W/m 9,7 km/h (2 Bft) 94,00 %
25.12.2021 15:40 0,7 C 1,1 C -0,6 C 92 % 1008,7 hPa 0,0 l/m 0 min 0 min 45 W/m 9,7 km/h (2 Bft) 97,96 %
25.12.2021 15:42 0,6 C 1,1 C -0,6 C 92 % 1008,7 hPa 0,0 l/m 0 min 0 min 43 W/m 16,1 km/h (3 Bft) 100,00 %
25.12.2021 15:44 0,6 C 0,6 C -0,6 C 92 % 1008,7 hPa 0,0 l/m 0 min 0 min 39 W/m 9,7 km/h (2 Bft) 95,65 %
25.12.2021 15:46 0,6 C 0,6 C -0,6 C 91 % 1008,7 hPa 0,0 l/m 0 min 0 min 35 W/m 12,9 km/h (3 Bft) 97,87 %
25.12.2021 15:48 0,6 C 0,6 C -0,6 C 91 % 1008,7 hPa 0,0 l/m 0 min 0 min 30 W/m 9,7 km/h (2 Bft) 95,74 %
25.12.2021 15:50 0,6 C 0,6 C -0,6 C 91 % 1008,7 hPa 0,0 l/m 0 min 0 min 26 W/m 12,9 km/h (3 Bft) 93,62 %
25.12.2021 15:52 0,6 C 0,6 C -0,6 C 91 % 1008,7 hPa 0,0 l/m 0 min 0 min 24 W/m 12,9 km/h (3 Bft) 93,62 %
25.12.2021 15:54 0,6 C 0,6 C -0,6 C 91 % 1008,7 hPa 0,0 l/m 0 min 0 min 22 W/m 6,4 km/h (2 Bft) 95,74 %
25.12.2021 15:56 0,6 C 0,6 C -0,6 C 91 % 1008,7 hPa 0,0 l/m 0 min 0 min 21 W/m 6,4 km/h (2 Bft) 97,56 %
25.12.2021 15:58 0,6 C 0,6 C -0,6 C 91 % 1008,7 hPa 0,0 l/m 0 min 0 min 18 W/m 9,7 km/h (2 Bft) 94,00 %
25.12.2021 16:00 0,6 C 0,0 C -1,1 C 91 % 1008,7 hPa 0,0 l/m 0 min 0 min 19 W/m 6,4 km/h (2 Bft) 97,87 %
25.12.2021 16:02 0,6 C 0,0 C -1,1 C 91 % 1008,8 hPa 0,0 l/m 0 min 0 min 21 W/m 12,9 km/h (3 Bft) 61,70 %
25.12.2021 16:04 0,5 C 0,0 C -1,1 C 91 % 1008,8 hPa 0,0 l/m 0 min 0 min 21 W/m 16,1 km/h (3 Bft) 93,18 %
25.12.2021 16:06 0,4 C 0,0 C -1,1 C 91 % 1008,8 hPa 0,0 l/m 0 min 0 min 20 W/m 9,7 km/h (2 Bft) 97,83 %
25.12.2021 16:08 0,4 C 0,0 C -1,1 C 91 % 1008,8 hPa 0,0 l/m 0 min 0 min 18 W/m 9,7 km/h (2 Bft) 94,00 %
25.12.2021 16:10 0,4 C 0,0 C -1,1 C 91 % 1008,8 hPa 0,0 l/m 0 min 0 min 17 W/m 9,7 km/h (2 Bft) 97,87 %
25.12.2021 16:12 0,4 C 0,0 C -1,1 C 91 % 1008,8 hPa 0,0 l/m 0 min 0 min 15 W/m 9,7 km/h (2 Bft) 97,87 %
25.12.2021 16:14 0,4 C 0,0 C -1,1 C 91 % 1008,8 hPa 0,0 l/m 0 min 0 min 13 W/m 12,9 km/h (3 Bft) 97,87 %
25.12.2021 16:16 0,3 C 0,0 C -1,1 C 91 % 1008,8 hPa 0,0 l/m 0 min 0 min 11 W/m 9,7 km/h (2 Bft) 95,74 %
25.12.2021 16:18 0,3 C 0,0 C -1,1 C 91 % 1008,9 hPa 0,0 l/m 0 min 0 min 10 W/m 9,7 km/h (2 Bft) 100,00 %
25.12.2021 16:20 0,3 C 0,0 C -1,1 C 91 % 1008,9 hPa 0,0 l/m 0 min 0 min 8 W/m 16,1 km/h (3 Bft) 100,00 %
25.12.2021 16:22 0,3 C 0,0 C -1,1 C 91 % 1008,9 hPa 0,0 l/m 0 min 0 min 7 W/m 12,9 km/h (3 Bft) 100,00 %
25.12.2021 16:24 0,3 C 0,0 C -1,1 C 90 % 1008,9 hPa 0,0 l/m 0 min 0 min 5 W/m 9,7 km/h (2 Bft) 100,00 %
25.12.2021 16:26 0,2 C 0,0 C -1,1 C 90 % 1008,9 hPa 0,0 l/m 0 min 0 min 5 W/m 12,9 km/h (3 Bft) 100,00 %
25.12.2021 16:28 0,2 C 0,0 C -1,1 C 90 % 1008,9 hPa 0,0 l/m 0 min 0 min 3 W/m 16,1 km/h (3 Bft) 100,00 %
25.12.2021 16:30 0,2 C 0,0 C -1,1 C 90 % 1008,9 hPa 0,0 l/m 0 min 0 min 0 W/m 16,1 km/h (3 Bft) 100,00 %
25.12.2021 16:32 0,1 C -0,6 C -1,1 C 90 % 1008,9 hPa 0,0 l/m 0 min 0 min 0 W/m 9,7 km/h (2 Bft) 100,00 %
25.12.2021 16:34 0,1 C -0,6 C -1,1 C 90 % 1008,9 hPa 0,0 l/m 0 min 0 min 0 W/m 9,7 km/h (2 Bft) 100,00 %
25.12.2021 16:36 0,1 C -0,6 C -1,1 C 90 % 1009,0 hPa 0,0 l/m 0 min 0 min 0 W/m 12,9 km/h (3 Bft) 100,00 %
25.12.2021 16:38 0,1 C -0,6 C -1,1 C 90 % 1008,9 hPa 0,0 l/m 0 min 0 min 0 W/m 9,7 km/h (2 Bft) 100,00 %
25.12.2021 16:40 0,1 C -0,6 C -1,7 C 90 % 1008,9 hPa 0,0 l/m 0 min 0 min 0 W/m 12,9 km/h (3 Bft) 97,87 %
25.12.2021 16:42 0,0 C -0,6 C -1,7 C 90 % 1009,0 hPa 0,0 l/m 0 min 0 min 0 W/m 9,7 km/h (2 Bft) 97,83 %
25.12.2021 16:44 -0,1 C -0,6 C -1,7 C 89 % 1009,0 hPa 0,0 l/m 0 min 0 min 0 W/m 12,9 km/h (3 Bft) 100,00 %
25.12.2021 16:46 -0,1 C -0,6 C -1,7 C 89 % 1009,0 hPa 0,0 l/m 0 min 0 min 0 W/m 9,7 km/h (2 Bft) 55,32 %
25.12.2021 16:48 -0,1 C -0,6 C -1,7 C 89 % 1009,1 hPa 0,0 l/m 0 min 0 min 0 W/m 12,9 km/h (3 Bft) 97,56 %
25.12.2021 16:50 -0,1 C -0,6 C -1,7 C 89 % 1009,0 hPa 0,0 l/m 0 min 0 min 0 W/m 9,7 km/h (2 Bft) 100,00 %
25.12.2021 16:52 -0,1 C -0,6 C -1,7 C 89 % 1009,1 hPa 0,0 l/m 0 min 0 min 0 W/m 9,7 km/h (2 Bft) 97,87 %
25.12.2021 16:54 -0,1 C -0,6 C -1,7 C 89 % 1009,1 hPa 0,0 l/m 0 min 0 min 0 W/m 9,7 km/h (2 Bft) 100,00 %
25.12.2021 16:56 -0,1 C -0,6 C -1,7 C 89 % 1009,1 hPa 0,0 l/m 0 min 0 min 0 W/m 9,7 km/h (2 Bft) 97,87 %
25.12.2021 16:58 -0,1 C -0,6 C -1,7 C 89 % 1009,2 hPa 0,0 l/m 0 min 0 min 0 W/m 9,7 km/h (2 Bft) 100,00 %
25.12.2021 17:00 -0,1 C -0,6 C -1,7 C 89 % 1009,1 hPa 0,0 l/m 0 min 0 min 0 W/m 9,7 km/h (2 Bft) 97,87 %
25.12.2021 17:02 -0,1 C -0,6 C -1,7 C 89 % 1009,1 hPa 0,0 l/m 0 min 0 min 0 W/m 9,7 km/h (2 Bft) 97,92 %
25.12.2021 17:04 -0,1 C -0,6 C -1,7 C 89 % 1009,1 hPa 0,0 l/m 0 min 0 min 0 W/m 6,4 km/h (2 Bft) 100,00 %
25.12.2021 17:06 -0,2 C -0,6 C -1,7 C 89 % 1009,1 hPa 0,0 l/m 0 min 0 min 0 W/m 9,7 km/h (2 Bft) 97,87 %
25.12.2021 17:08 -0,2 C -0,6 C -1,7 C 89 % 1009,1 hPa 0,0 l/m 0 min 0 min 0 W/m 12,9 km/h (3 Bft) 100,00 %
25.12.2021 17:10 -0,2 C -0,6 C -1,7 C 89 % 1009,1 hPa 0,0 l/m 0 min 0 min 0 W/m 9,7 km/h (2 Bft) 98,00 %
25.12.2021 17:12 -0,2 C -0,6 C -1,7 C 89 % 1009,2 hPa 0,0 l/m 0 min 0 min 0 W/m 9,7 km/h (2 Bft) 97,87 %
25.12.2021 17:14 -0,2 C -1,1 C -1,7 C 89 % 1009,2 hPa 0,0 l/m 0 min 0 min 0 W/m 16,1 km/h (3 Bft) 95,74 %
25.12.2021 17:16 -0,2 C -1,1 C -1,7 C 89 % 1009,3 hPa 0,0 l/m 0 min 0 min 0 W/m 9,7 km/h (2 Bft) 97,83 %
25.12.2021 17:18 -0,3 C -1,1 C -1,7 C 89 % 1009,3 hPa 0,0 l/m 0 min 0 min 0 W/m 9,7 km/h (2 Bft) 95,74 %
25.12.2021 17:20 -0,3 C -1,1 C -1,7 C 88 % 1009,3 hPa 0,0 l/m 0 min 0 min 0 W/m 6,4 km/h (2 Bft) 95,74 %
25.12.2021 17:22 -0,3 C -1,1 C -1,7 C 88 % 1009,4 hPa 0,0 l/m 0 min 0 min 0 W/m 9,7 km/h (2 Bft) 95,74 %
25.12.2021 17:24 -0,4 C -1,1 C -1,7 C 88 % 1009,4 hPa 0,0 l/m 0 min 0 min 0 W/m 12,9 km/h (3 Bft) 95,74 %
25.12.2021 17:26 -0,4 C -1,1 C -1,7 C 88 % 1009,4 hPa 0,0 l/m 0 min 0 min 0 W/m 6,4 km/h (2 Bft) 97,83 %
25.12.2021 17:28 -0,4 C -1,1 C -1,7 C 88 % 1009,4 hPa 0,0 l/m 0 min 0 min 0 W/m 6,4 km/h (2 Bft) 97,87 %
25.12.2021 17:30 -0,4 C -1,1 C -1,7 C 88 % 1009,4 hPa 0,0 l/m 0 min 0 min 0 W/m 9,7 km/h (2 Bft) 95,74 %
25.12.2021 17:32 -0,4 C -1,1 C -1,7 C 88 % 1009,4 hPa 0,0 l/m 0 min 0 min 0 W/m 9,7 km/h (2 Bft) 97,87 %
25.12.2021 17:34 -0,5 C -1,1 C -1,7 C 88 % 1009,4 hPa 0,0 l/m 0 min 0 min 0 W/m 16,1 km/h (3 Bft) 93,62 %
25.12.2021 17:36 -0,5 C -1,1 C -1,7 C 88 % 1009,3 hPa 0,0 l/m 0 min 0 min 0 W/m 12,9 km/h (3 Bft) 95,74 %
25.12.2021 17:38 -0,5 C -1,1 C -1,7 C 88 % 1009,3 hPa 0,0 l/m 0 min 0 min 0 W/m 12,9 km/h (3 Bft) 93,48 %
25.12.2021 17:40 -0,6 C -1,1 C -2,2 C 88 % 1009,3 hPa 0,0 l/m 0 min 0 min 0 W/m 9,7 km/h (2 Bft) 95,83 %
25.12.2021 17:42 -0,6 C -1,1 C -2,2 C 87 % 1009,3 hPa 0,0 l/m 0 min 0 min 0 W/m 6,4 km/h (2 Bft) 95,74 %
25.12.2021 17:44 -0,6 C -1,1 C -2,2 C 87 % 1009,3 hPa 0,0 l/m 0 min 0 min 0 W/m 16,1 km/h (3 Bft) 95,74 %
25.12.2021 17:46 -0,6 C -1,1 C -2,2 C 87 % 1009,3 hPa 0,0 l/m 0 min 0 min 0 W/m 9,7 km/h (2 Bft) 94,29 %
25.12.2021 17:48 -0,6 C -1,1 C -2,2 C 87 % 1009,3 hPa 0,0 l/m 0 min 0 min 0 W/m 6,4 km/h (2 Bft) 97,87 %
25.12.2021 17:50 -0,6 C -1,1 C -2,2 C 87 % 1009,4 hPa 0,0 l/m 0 min 0 min 0 W/m 9,7 km/h (2 Bft) 95,74 %
25.12.2021 17:52 -0,6 C -1,1 C -2,2 C 87 % 1009,4 hPa 0,0 l/m 0 min 0 min 0 W/m 9,7 km/h (2 Bft) 95,74 %
25.12.2021 17:54 -0,6 C -1,1 C -2,2 C 87 % 1009,4 hPa 0,0 l/m 0 min 0 min 0 W/m 9,7 km/h (2 Bft) 97,83 %
25.12.2021 17:56 -0,6 C -1,1 C -2,2 C 87 % 1009,4 hPa 0,0 l/m 0 min 0 min 0 W/m 12,9 km/h (3 Bft) 97,87 %
25.12.2021 17:58 -0,7 C -1,1 C -2,2 C 87 % 1009,4 hPa 0,0 l/m 0 min 0 min 0 W/m 6,4 km/h (2 Bft) 98,15 %
25.12.2021 18:00 -0,7 C -1,1 C -2,2 C 87 % 1009,4 hPa 0,0 l/m 0 min 0 min 0 W/m 9,7 km/h (2 Bft) 97,87 %
25.12.2021 18:02 -0,7 C -1,1 C -2,2 C 87 % 1009,3 hPa 0,0 l/m 0 min 0 min 0 W/m 9,7 km/h (2 Bft) 97,87 %
25.12.2021 18:04 -0,7 C -1,1 C -2,2 C 87 % 1009,3 hPa 0,0 l/m 0 min 0 min 0 W/m 12,9 km/h (3 Bft) 100,00 %
25.12.2021 18:08 -0,7 C -1,1 C -2,2 C 87 % 1009,2 hPa 0,0 l/m 0 min 0 min 0 W/m 16,1 km/h (3 Bft) 100,00 %
25.12.2021 18:10 -0,7 C -1,7 C -2,2 C 87 % 1009,2 hPa 0,0 l/m 0 min 0 min 0 W/m 16,1 km/h (3 Bft) 100,00 %
25.12.2021 18:12 -0,8 C -1,7 C -2,2 C 87 % 1009,3 hPa 0,0 l/m 0 min 0 min 0 W/m 9,7 km/h (2 Bft) 100,00 %
25.12.2021 18:14 -0,8 C -1,7 C -2,2 C 87 % 1009,3 hPa 0,0 l/m 0 min 0 min 0 W/m 9,7 km/h (2 Bft) 100,00 %
25.12.2021 18:16 -0,8 C -1,7 C -2,2 C 87 % 1009,3 hPa 0,0 l/m 0 min 0 min 0 W/m 9,7 km/h (2 Bft) 97,87 %
25.12.2021 18:18 -0,8 C -1,7 C -2,2 C 87 % 1009,3 hPa 0,0 l/m 0 min 0 min 0 W/m 9,7 km/h (2 Bft) 100,00 %
25.12.2021 18:20 -0,8 C -1,7 C -2,2 C 87 % 1009,4 hPa 0,0 l/m 0 min 0 min 0 W/m 12,9 km/h (3 Bft) 100,00 %
25.12.2021 18:22 -0,8 C -1,7 C -2,2 C 87 % 1009,4 hPa 0,0 l/m 0 min 0 min 0 W/m 6,4 km/h (2 Bft) 100,00 %
25.12.2021 18:24 -0,9 C -1,7 C -2,2 C 87 % 1009,4 hPa 0,0 l/m 0 min 0 min 0 W/m 12,9 km/h (3 Bft) 100,00 %
25.12.2021 18:26 -0,9 C -1,7 C -2,2 C 87 % 1009,4 hPa 0,0 l/m 0 min 0 min 0 W/m 9,7 km/h (2 Bft) 100,00 %
25.12.2021 18:28 -0,9 C -1,7 C -2,2 C 87 % 1009,4 hPa 0,0 l/m 0 min 0 min 0 W/m 9,7 km/h (2 Bft) 100,00 %
25.12.2021 18:30 -0,9 C -1,7 C -2,2 C 87 % 1009,4 hPa 0,0 l/m 0 min 0 min 0 W/m 9,7 km/h (2 Bft) 100,00 %
25.12.2021 18:32 -0,9 C -1,7 C -2,2 C 87 % 1009,4 hPa 0,0 l/m 0 min 0 min 0 W/m 9,7 km/h (2 Bft) 97,87 %
25.12.2021 18:34 -0,9 C -1,7 C -2,2 C 87 % 1009,4 hPa 0,0 l/m 0 min 0 min 0 W/m 9,7 km/h (2 Bft) 97,87 %
25.12.2021 18:36 -0,9 C -1,7 C -2,2 C 87 % 1009,5 hPa 0,0 l/m 0 min 0 min 0 W/m 12,9 km/h (3 Bft) 97,87 %
25.12.2021 18:38 -0,9 C -1,7 C -2,2 C 87 % 1009,5 hPa 0,0 l/m 0 min 0 min 0 W/m 9,7 km/h (2 Bft) 97,83 %
25.12.2021 18:40 -1,0 C -1,7 C -2,2 C 87 % 1009,5 hPa 0,0 l/m 0 min 0 min 0 W/m 12,9 km/h (3 Bft) 97,22 %
25.12.2021 18:42 -1,0 C -1,7 C -2,2 C 87 % 1009,5 hPa 0,0 l/m 0 min 0 min 0 W/m 9,7 km/h (2 Bft) 95,65 %
25.12.2021 18:44 -1,0 C -1,7 C -2,2 C 87 % 1009,5 hPa 0,0 l/m 0 min 0 min 0 W/m 22,5 km/h (4 Bft) 97,87 %
25.12.2021 18:46 -1,0 C -1,7 C -2,2 C 86 % 1009,5 hPa 0,0 l/m 0 min 0 min 0 W/m 12,9 km/h (3 Bft) 97,87 %
25.12.2021 18:48 -1,0 C -1,7 C -2,2 C 86 % 1009,6 hPa 0,0 l/m 0 min 0 min 0 W/m 12,9 km/h (3 Bft) 97,87 %
25.12.2021 18:50 -1,0 C -1,7 C -2,2 C 86 % 1009,5 hPa 0,0 l/m 0 min 0 min 0 W/m 9,7 km/h (2 Bft) 97,87 %
25.12.2021 18:52 -1,0 C -1,7 C -2,2 C 86 % 1009,5 hPa 0,0 l/m 0 min 0 min 0 W/m 9,7 km/h (2 Bft) 97,83 %
25.12.2021 18:54 -1,0 C -1,7 C -2,2 C 86 % 1009,5 hPa 0,0 l/m 0 min 0 min 0 W/m 9,7 km/h (2 Bft) 91,49 %
25.12.2021 18:56 -0,9 C -1,7 C -2,2 C 87 % 1009,4 hPa 0,0 l/m 0 min 0 min 0 W/m 9,7 km/h (2 Bft) 97,87 %
25.12.2021 18:58 -0,9 C -1,7 C -2,2 C 87 % 1009,4 hPa 0,0 l/m 0 min 0 min 0 W/m 16,1 km/h (3 Bft) 97,87 %
25.12.2021 19:00 -0,9 C -1,7 C -2,2 C 86 % 1009,4 hPa 0,0 l/m 0 min 0 min 0 W/m 16,1 km/h (3 Bft) 97,87 %
25.12.2021 19:02 -1,0 C -1,7 C -2,2 C 86 % 1009,4 hPa 0,0 l/m 0 min 0 min 0 W/m 9,7 km/h (2 Bft) 97,87 %
25.12.2021 19:04 -1,0 C -1,7 C -2,2 C 86 % 1009,4 hPa 0,0 l/m 0 min 0 min 0 W/m 16,1 km/h (3 Bft) 95,65 %
25.12.2021 19:06 -1,0 C -1,7 C -2,2 C 86 % 1009,4 hPa 0,0 l/m 0 min 0 min 0 W/m 12,9 km/h (3 Bft) 97,87 %
25.12.2021 19:08 -1,0 C -1,7 C -2,2 C 86 % 1009,5 hPa 0,0 l/m 0 min 0 min 0 W/m 16,1 km/h (3 Bft) 94,64 %
25.12.2021 19:10 -1,0 C -1,7 C -2,2 C 86 % 1009,5 hPa 0,0 l/m 0 min 0 min 0 W/m 19,3 km/h (3 Bft) 98,00 %
25.12.2021 19:12 -1,0 C -1,7 C -2,2 C 86 % 1009,4 hPa 0,0 l/m 0 min 0 min 0 W/m 16,1 km/h (3 Bft) 95,65 %
25.12.2021 19:14 -1,0 C -1,7 C -2,2 C 86 % 1009,5 hPa 0,0 l/m 0 min 0 min 0 W/m 12,9 km/h (3 Bft) 93,62 %
25.12.2021 19:16 -1,0 C -1,7 C -2,2 C 86 % 1009,5 hPa 0,0 l/m 0 min 0 min 0 W/m 16,1 km/h (3 Bft) 97,87 %
25.12.2021 19:18 -1,0 C -1,7 C -2,2 C 86 % 1009,4 hPa 0,0 l/m 0 min 0 min 0 W/m 9,7 km/h (2 Bft) 93,62 %
25.12.2021 19:20 -1,0 C -1,7 C -2,2 C 86 % 1009,4 hPa 0,0 l/m 0 min 0 min 0 W/m 12,9 km/h (3 Bft) 93,62 %
25.12.2021 19:22 -1,0 C -1,7 C -2,2 C 86 % 1009,4 hPa 0,0 l/m 0 min 0 min 0 W/m 12,9 km/h (3 Bft) 93,62 %
25.12.2021 19:24 -0,9 C -1,7 C -2,2 C 86 % 1009,3 hPa 0,0 l/m 0 min 0 min 0 W/m 22,5 km/h (4 Bft) 89,13 %
25.12.2021 19:26 -1,0 C -1,7 C -2,2 C 86 % 1009,3 hPa 0,0 l/m 0 min 0 min 0 W/m 16,1 km/h (3 Bft) 95,74 %
25.12.2021 19:28 -1,0 C -1,7 C -2,2 C 86 % 1009,3 hPa 0,0 l/m 0 min 0 min 0 W/m 12,9 km/h (3 Bft) 95,74 %
25.12.2021 19:30 -1,0 C -1,7 C -2,8 C 86 % 1009,2 hPa 0,0 l/m 0 min 0 min 0 W/m 12,9 km/h (3 Bft) 95,74 %
25.12.2021 19:32 -1,0 C -1,7 C -2,8 C 85 % 1009,2 hPa 0,0 l/m 0 min 0 min 0 W/m 12,9 km/h (3 Bft) 94,29 %
25.12.2021 19:34 -1,0 C -1,7 C -2,8 C 85 % 1009,2 hPa 0,0 l/m 0 min 0 min 0 W/m 16,1 km/h (3 Bft) 95,74 %
25.12.2021 19:36 -1,1 C -1,7 C -2,8 C 85 % 1009,2 hPa 0,0 l/m 0 min 0 min 0 W/m 22,5 km/h (4 Bft) 95,74 %
25.12.2021 19:38 -1,1 C -1,7 C -2,8 C 85 % 1009,2 hPa 0,0 l/m 0 min 0 min 0 W/m 12,9 km/h (3 Bft) 97,87 %
25.12.2021 19:40 -1,1 C -1,7 C -2,8 C 85 % 1009,3 hPa 0,0 l/m 0 min 0 min 0 W/m 19,3 km/h (3 Bft) 94,55 %
25.12.2021 19:42 -1,1 C -1,7 C -2,8 C 85 % 1009,3 hPa 0,0 l/m 0 min 0 min 0 W/m 12,9 km/h (3 Bft) 92,00 %
25.12.2021 19:44 -1,1 C -1,7 C -2,8 C 86 % 1009,3 hPa 0,0 l/m 0 min 0 min 0 W/m 9,7 km/h (2 Bft) 95,74 %
25.12.2021 19:46 -1,1 C -1,7 C -2,8 C 86 % 1009,4 hPa 0,0 l/m 0 min 0 min 0 W/m 16,1 km/h (3 Bft) 95,65 %
25.12.2021 19:48 -1,1 C -1,7 C -2,8 C 86 % 1009,4 hPa 0,0 l/m 0 min 0 min 0 W/m 9,7 km/h (2 Bft) 95,74 %
25.12.2021 19:50 -1,1 C -1,7 C -2,8 C 86 % 1009,4 hPa 0,0 l/m 0 min 0 min 0 W/m 12,9 km/h (3 Bft) 97,87 %
25.12.2021 19:52 -1,1 C -1,7 C -2,8 C 86 % 1009,3 hPa 0,0 l/m 0 min 0 min 0 W/m 12,9 km/h (3 Bft) 97,87 %
25.12.2021 19:54 -1,1 C -1,7 C -2,8 C 86 % 1009,4 hPa 0,0 l/m 0 min 0 min 0 W/m 9,7 km/h (2 Bft) 95,74 %
25.12.2021 19:56 -1,1 C -1,7 C -2,8 C 86 % 1009,4 hPa 0,0 l/m 0 min 0 min 0 W/m 12,9 km/h (3 Bft) 97,83 %
25.12.2021 19:58 -1,1 C -1,7 C -2,8 C 86 % 1009,4 hPa 0,0 l/m 0 min 0 min 0 W/m 16,1 km/h (3 Bft) 97,87 %
25.12.2021 20:00 -1,1 C -1,7 C -2,8 C 86 % 1009,4 hPa 0,0 l/m 0 min 0 min 0 W/m 9,7 km/h (2 Bft) 100,00 %
25.12.2021 20:02 -1,1 C -1,7 C -2,8 C 86 % 1009,4 hPa 0,0 l/m 0 min 0 min 0 W/m 16,1 km/h (3 Bft) 100,00 %
25.12.2021 20:04 -1,1 C -1,7 C -2,8 C 86 % 1009,5 hPa 0,0 l/m 0 min 0 min 0 W/m 12,9 km/h (3 Bft) 97,87 %
25.12.2021 20:06 -1,1 C -1,7 C -2,8 C 86 % 1009,4 hPa 0,0 l/m 0 min 0 min 0 W/m 6,4 km/h (2 Bft) 97,96 %
25.12.2021 20:08 -1,1 C -1,7 C -2,8 C 86 % 1009,5 hPa 0,0 l/m 0 min 0 min 0 W/m 9,7 km/h (2 Bft) 100,00 %
25.12.2021 20:10 -1,1 C -1,7 C -2,8 C 86 % 1009,5 hPa 0,0 l/m 0 min 0 min 0 W/m 6,4 km/h (2 Bft) 37,50 %
25.12.2021 20:12 -1,1 C -1,7 C -2,8 C 86 % 1009,4 hPa 0,0 l/m 0 min 0 min 0 W/m 12,9 km/h (3 Bft) 100,00 %
25.12.2021 20:14 -1,1 C -1,7 C -2,8 C 86 % 1009,4 hPa 0,0 l/m 0 min 0 min 0 W/m 12,9 km/h (3 Bft) 100,00 %
25.12.2021 20:16 -1,1 C -1,7 C -2,8 C 86 % 1009,5 hPa 0,0 l/m 0 min 0 min 0 W/m 12,9 km/h (3 Bft) 100,00 %
25.12.2021 20:18 -1,1 C -1,7 C -2,8 C 86 % 1009,4 hPa 0,0 l/m 0 min 0 min 0 W/m 12,9 km/h (3 Bft) 100,00 %
25.12.2021 20:20 -1,1 C -1,7 C -2,8 C 86 % 1009,4 hPa 0,0 l/m 0 min 0 min 0 W/m 12,9 km/h (3 Bft) 100,00 %
25.12.2021 20:22 -1,1 C -1,7 C -2,8 C 85 % 1009,5 hPa 0,0 l/m 0 min 0 min 0 W/m 16,1 km/h (3 Bft) 100,00 %
25.12.2021 20:24 -1,1 C -1,7 C -2,8 C 85 % 1009,4 hPa 0,0 l/m 0 min 0 min 0 W/m 12,9 km/h (3 Bft) 100,00 %
25.12.2021 20:26 -1,1 C -1,7 C -2,8 C 85 % 1009,4 hPa 0,0 l/m 0 min 0 min 0 W/m 19,3 km/h (3 Bft) 100,00 %
25.12.2021 20:28 -1,1 C -1,7 C -2,8 C 85 % 1009,4 hPa 0,0 l/m 0 min 0 min 0 W/m 12,9 km/h (3 Bft) 100,00 %
25.12.2021 20:30 -1,2 C -1,7 C -2,8 C 85 % 1009,4 hPa 0,0 l/m 0 min 0 min 0 W/m 9,7 km/h (2 Bft) 100,00 %
25.12.2021 20:32 -1,2 C -1,7 C -2,8 C 85 % 1009,4 hPa 0,0 l/m 0 min 0 min 0 W/m 12,9 km/h (3 Bft) 97,83 %
25.12.2021 20:34 -1,2 C -1,7 C -2,8 C 85 % 1009,4 hPa 0,0 l/m 0 min 0 min 0 W/m 12,9 km/h (3 Bft) 100,00 %
25.12.2021 20:36 -1,2 C -1,7 C -2,8 C 85 % 1009,4 hPa 0,0 l/m 0 min 0 min 0 W/m 16,1 km/h (3 Bft) 100,00 %
25.12.2021 20:38 -1,2 C -1,7 C -2,8 C 85 % 1009,5 hPa 0,0 l/m 0 min 0 min 0 W/m 12,9 km/h (3 Bft) 100,00 %
25.12.2021 20:40 -1,2 C -1,7 C -2,8 C 85 % 1009,5 hPa 0,0 l/m 0 min 0 min 0 W/m 12,9 km/h (3 Bft) 100,00 %
25.12.2021 20:42 -1,2 C -1,7 C -2,8 C 85 % 1009,4 hPa 0,0 l/m 0 min 0 min 0 W/m 12,9 km/h (3 Bft) 100,00 %
25.12.2021 20:44 -1,2 C -1,7 C -2,8 C 85 % 1009,4 hPa 0,0 l/m 0 min 0 min 0 W/m 9,7 km/h (2 Bft) 100,00 %
25.12.2021 20:46 -1,2 C -1,7 C -2,8 C 85 % 1009,4 hPa 0,0 l/m 0 min 0 min 0 W/m 12,9 km/h (3 Bft) 100,00 %
25.12.2021 20:48 -1,2 C -1,7 C -2,8 C 85 % 1009,4 hPa 0,0 l/m 0 min 0 min 0 W/m 12,9 km/h (3 Bft) 100,00 %
25.12.2021 20:50 -1,2 C -1,7 C -2,8 C 85 % 1009,4 hPa 0,0 l/m 0 min 0 min 0 W/m 12,9 km/h (3 Bft) 56,52 %
25.12.2021 20:52 -1,3 C -1,7 C -2,8 C 85 % 1009,3 hPa 0,0 l/m 0 min 0 min 0 W/m 9,7 km/h (2 Bft) 100,00 %
25.12.2021 20:54 -1,3 C -1,7 C -2,8 C 85 % 1009,3 hPa 0,0 l/m 0 min 0 min 0 W/m 9,7 km/h (2 Bft) 97,83 %
25.12.2021 20:56 -1,3 C -2,2 C -3,3 C 85 % 1009,3 hPa 0,0 l/m 0 min 0 min 0 W/m 12,9 km/h (3 Bft) 100,00 %
25.12.2021 20:58 -1,3 C -2,2 C -3,3 C 85 % 1009,3 hPa 0,0 l/m 0 min 0 min 0 W/m 9,7 km/h (2 Bft) 95,74 %
25.12.2021 21:00 -1,3 C -2,2 C -3,3 C 85 % 1009,3 hPa 0,0 l/m 0 min 0 min 0 W/m 9,7 km/h (2 Bft) 100,00 %
25.12.2021 21:02 -1,3 C -2,2 C -3,3 C 85 % 1009,3 hPa 0,0 l/m 0 min 0 min 0 W/m 12,9 km/h (3 Bft) 100,00 %
25.12.2021 21:04 -1,4 C -2,2 C -3,3 C 85 % 1009,3 hPa 0,0 l/m 0 min 0 min 0 W/m 9,7 km/h (2 Bft) 100,00 %
25.12.2021 21:06 -1,4 C -2,2 C -3,3 C 85 % 1009,3 hPa 0,0 l/m 0 min 0 min 0 W/m 9,7 km/h (2 Bft) 97,83 %
25.12.2021 21:08 -1,4 C -1,7 C -3,3 C 85 % 1009,3 hPa 0,0 l/m 0 min 0 min 0 W/m 9,7 km/h (2 Bft) 94,59 %
25.12.2021 21:10 -1,4 C -1,7 C -3,3 C 85 % 1009,4 hPa 0,0 l/m 0 min 0 min 0 W/m 9,7 km/h (2 Bft) 97,83 %
25.12.2021 21:12 -1,4 C -1,7 C -3,3 C 85 % 1009,3 hPa 0,0 l/m 0 min 0 min 0 W/m 12,9 km/h (3 Bft) 97,87 %
25.12.2021 21:14 -1,4 C -1,7 C -3,3 C 85 % 1009,3 hPa 0,0 l/m 0 min 0 min 0 W/m 6,4 km/h (2 Bft) 97,87 %
25.12.2021 21:16 -1,4 C -1,7 C -3,3 C 85 % 1009,3 hPa 0,0 l/m 0 min 0 min 0 W/m 6,4 km/h (2 Bft) 97,87 %
25.12.2021 21:18 -1,4 C -1,7 C -3,3 C 85 % 1009,3 hPa 0,0 l/m 0 min 0 min 0 W/m 12,9 km/h (3 Bft) 97,87 %
25.12.2021 21:20 -1,4 C -1,7 C -3,3 C 85 % 1009,3 hPa 0,0 l/m 0 min 0 min 0 W/m 9,7 km/h (2 Bft) 97,87 %
25.12.2021 21:22 -1,4 C -1,7 C -2,8 C 85 % 1009,3 hPa 0,0 l/m 0 min 0 min 0 W/m 9,7 km/h (2 Bft) 93,48 %
25.12.2021 21:24 -1,4 C -1,7 C -3,3 C 85 % 1009,3 hPa 0,0 l/m 0 min 0 min 0 W/m 9,7 km/h (2 Bft) 95,74 %
25.12.2021 21:26 -1,4 C -1,7 C -3,3 C 85 % 1009,3 hPa 0,0 l/m 0 min 0 min 0 W/m 9,7 km/h (2 Bft) 91,49 %
25.12.2021 21:28 -1,4 C -1,7 C -3,3 C 85 % 1009,3 hPa 0,0 l/m 0 min 0 min 0 W/m 19,3 km/h (3 Bft) 95,74 %
25.12.2021 21:30 -1,4 C -1,7 C -3,3 C 85 % 1009,3 hPa 0,0 l/m 0 min 0 min 0 W/m 12,9 km/h (3 Bft) 97,87 %
25.12.2021 21:32 -1,4 C -1,7 C -3,3 C 85 % 1009,3 hPa 0,0 l/m 0 min 0 min 0 W/m 9,7 km/h (2 Bft) 97,87 %
25.12.2021 21:34 -1,4 C -1,7 C -3,3 C 85 % 1009,2 hPa 0,0 l/m 0 min 0 min 0 W/m 6,4 km/h (2 Bft) 97,83 %
25.12.2021 21:36 -1,4 C -1,7 C -3,3 C 85 % 1009,3 hPa 0,0 l/m 0 min 0 min 0 W/m 12,9 km/h (3 Bft) 96,30 %
25.12.2021 21:38 -1,4 C -1,7 C -3,3 C 85 % 1009,3 hPa 0,0 l/m 0 min 0 min 0 W/m 9,7 km/h (2 Bft) 93,62 %
25.12.2021 21:40 -1,4 C -1,7 C -3,3 C 85 % 1009,3 hPa 0,0 l/m 0 min 0 min 0 W/m 9,7 km/h (2 Bft) 93,88 %
25.12.2021 21:42 -1,4 C -1,7 C -3,3 C 85 % 1009,2 hPa 0,0 l/m 0 min 0 min 0 W/m 16,1 km/h (3 Bft) 95,74 %
25.12.2021 21:44 -1,4 C -1,7 C -3,3 C 85 % 1009,3 hPa 0,0 l/m 0 min 0 min 0 W/m 12,9 km/h (3 Bft) 93,62 %
25.12.2021 21:46 -1,4 C -1,7 C -3,3 C 85 % 1009,3 hPa 0,0 l/m 0 min 0 min 0 W/m 12,9 km/h (3 Bft) 95,74 %
25.12.2021 21:48 -1,4 C -1,7 C -3,3 C 85 % 1009,3 hPa 0,0 l/m 0 min 0 min 0 W/m 9,7 km/h (2 Bft) 95,74 %
25.12.2021 21:50 -1,4 C -1,7 C -3,3 C 85 % 1009,3 hPa 0,0 l/m 0 min 0 min 0 W/m 19,3 km/h (3 Bft) 95,74 %
25.12.2021 21:52 -1,4 C -1,7 C -3,3 C 85 % 1009,3 hPa 0,0 l/m 0 min 0 min 0 W/m 16,1 km/h (3 Bft) 95,65 %
25.12.2021 21:54 -1,5 C -1,7 C -3,3 C 85 % 1009,2 hPa 0,0 l/m 0 min 0 min 0 W/m 16,1 km/h (3 Bft) 93,62 %
25.12.2021 21:56 -1,5 C -1,7 C -3,3 C 85 % 1009,3 hPa 0,0 l/m 0 min 0 min 0 W/m 12,9 km/h (3 Bft) 95,74 %
25.12.2021 21:58 -1,5 C -1,7 C -3,3 C 85 % 1009,2 hPa 0,0 l/m 0 min 0 min 0 W/m 12,9 km/h (3 Bft) 93,62 %
25.12.2021 22:00 -1,5 C -1,7 C -3,3 C 84 % 1009,1 hPa 0,0 l/m 0 min 0 min 0 W/m 16,1 km/h (3 Bft) 93,62 %
25.12.2021 22:02 -1,5 C -1,7 C -3,3 C 84 % 1009,2 hPa 0,0 l/m 0 min 0 min 0 W/m 9,7 km/h (2 Bft) 93,62 %
25.12.2021 22:04 -1,5 C -1,7 C -3,3 C 84 % 1009,2 hPa 0,0 l/m 0 min 0 min 0 W/m 19,3 km/h (3 Bft) 95,74 %
25.12.2021 22:06 -1,5 C -1,7 C -3,3 C 84 % 1009,2 hPa 0,0 l/m 0 min 0 min 0 W/m 12,9 km/h (3 Bft) 95,74 %
25.12.2021 22:08 -1,5 C -1,7 C -3,3 C 84 % 1009,2 hPa 0,0 l/m 0 min 0 min 0 W/m 12,9 km/h (3 Bft) 91,67 %
25.12.2021 22:10 -1,6 C -1,7 C -3,3 C 84 % 1009,1 hPa 0,0 l/m 0 min 0 min 0 W/m 12,9 km/h (3 Bft) 93,62 %
25.12.2021 22:12 -1,5 C -1,7 C -3,3 C 84 % 1009,1 hPa 0,0 l/m 0 min 0 min 0 W/m 12,9 km/h (3 Bft) 93,62 %
25.12.2021 22:14 -1,6 C -2,2 C -3,3 C 85 % 1009,2 hPa 0,0 l/m 0 min 0 min 0 W/m 16,1 km/h (3 Bft) 95,74 %
25.12.2021 22:16 -1,6 C -1,7 C -3,3 C 84 % 1009,2 hPa 0,0 l/m 0 min 0 min 0 W/m 12,9 km/h (3 Bft) 95,74 %
25.12.2021 22:18 -1,6 C -1,7 C -3,3 C 84 % 1009,2 hPa 0,0 l/m 0 min 0 min 0 W/m 9,7 km/h (2 Bft) 95,74 %
25.12.2021 22:20 -1,6 C -1,7 C -3,3 C 84 % 1009,2 hPa 0,0 l/m 0 min 0 min 0 W/m 12,9 km/h (3 Bft) 95,65 %
25.12.2021 22:22 -1,6 C -1,7 C -3,3 C 85 % 1009,2 hPa 0,0 l/m 0 min 0 min 0 W/m 12,9 km/h (3 Bft) 97,87 %
25.12.2021 22:24 -1,6 C -1,7 C -3,3 C 85 % 1009,2 hPa 0,0 l/m 0 min 0 min 0 W/m 16,1 km/h (3 Bft) 97,87 %
25.12.2021 22:26 -1,6 C -1,7 C -3,3 C 85 % 1009,2 hPa 0,0 l/m 0 min 0 min 0 W/m 9,7 km/h (2 Bft) 97,87 %
25.12.2021 22:28 -1,6 C -1,7 C -3,3 C 84 % 1009,2 hPa 0,0 l/m 0 min 0 min 0 W/m 9,7 km/h (2 Bft) 97,87 %
25.12.2021 22:30 -1,6 C -1,7 C -3,3 C 84 % 1009,2 hPa 0,0 l/m 0 min 0 min 0 W/m 12,9 km/h (3 Bft) 97,87 %
25.12.2021 22:32 -1,6 C -1,7 C -3,3 C 84 % 1009,2 hPa 0,0 l/m 0 min 0 min 0 W/m 12,9 km/h (3 Bft) 95,65 %
25.12.2021 22:34 -1,6 C -1,7 C -3,3 C 84 % 1009,2 hPa 0,0 l/m 0 min 0 min 0 W/m 9,7 km/h (2 Bft) 97,87 %
25.12.2021 22:36 -1,6 C -1,7 C -3,3 C 84 % 1009,1 hPa 0,0 l/m 0 min 0 min 0 W/m 9,7 km/h (2 Bft) 97,87 %
25.12.2021 22:38 -1,6 C -1,7 C -3,3 C 84 % 1009,1 hPa 0,0 l/m 0 min 0 min 0 W/m 19,3 km/h (3 Bft) 100,00 %
25.12.2021 22:40 -1,6 C -1,7 C -3,3 C 84 % 1009,2 hPa 0,0 l/m 0 min 0 min 0 W/m 12,9 km/h (3 Bft) 97,87 %
25.12.2021 22:42 -1,6 C -1,7 C -3,3 C 84 % 1009,1 hPa 0,0 l/m 0 min 0 min 0 W/m 9,7 km/h (2 Bft) 97,83 %
25.12.2021 22:44 -1,6 C -1,7 C -3,3 C 84 % 1009,0 hPa 0,0 l/m 0 min 0 min 0 W/m 12,9 km/h (3 Bft) 100,00 %
25.12.2021 22:46 -1,6 C -2,2 C -3,3 C 84 % 1009,0 hPa 0,0 l/m 0 min 0 min 0 W/m 19,3 km/h (3 Bft) 95,74 %
25.12.2021 22:48 -1,6 C -2,2 C -3,3 C 84 % 1009,1 hPa 0,0 l/m 0 min 0 min 0 W/m 12,9 km/h (3 Bft) 100,00 %
25.12.2021 22:50 -1,6 C -2,2 C -3,3 C 84 % 1009,1 hPa 0,0 l/m 0 min 0 min 0 W/m 12,9 km/h (3 Bft) 97,87 %
25.12.2021 22:52 -1,6 C -2,2 C -3,3 C 84 % 1009,1 hPa 0,0 l/m 0 min 0 min 0 W/m 12,9 km/h (3 Bft) 95,74 %
25.12.2021 22:54 -1,6 C -2,2 C -3,3 C 84 % 1009,1 hPa 0,0 l/m 0 min 0 min 0 W/m 12,9 km/h (3 Bft) 100,00 %
25.12.2021 22:56 -1,6 C -2,2 C -3,3 C 84 % 1009,1 hPa 0,0 l/m 0 min 0 min 0 W/m 6,4 km/h (2 Bft) 100,00 %
25.12.2021 22:58 -1,6 C -2,2 C -3,3 C 84 % 1009,0 hPa 0,0 l/m 0 min 0 min 0 W/m 12,9 km/h (3 Bft) 100,00 %
25.12.2021 23:00 -1,6 C -2,2 C -3,3 C 84 % 1009,1 hPa 0,0 l/m 0 min 0 min 0 W/m 9,7 km/h (2 Bft) 95,74 %
25.12.2021 23:02 -1,6 C -2,2 C -3,3 C 84 % 1009,1 hPa 0,0 l/m 0 min 0 min 0 W/m 12,9 km/h (3 Bft) 95,74 %
25.12.2021 23:04 -1,6 C -2,2 C -3,3 C 84 % 1009,1 hPa 0,0 l/m 0 min 0 min 0 W/m 12,9 km/h (3 Bft) 97,87 %
25.12.2021 23:06 -1,6 C -2,2 C -3,3 C 84 % 1009,1 hPa 0,0 l/m 0 min 0 min 0 W/m 9,7 km/h (2 Bft) 98,11 %
25.12.2021 23:08 -1,7 C -2,2 C -3,3 C 84 % 1009,1 hPa 0,0 l/m 0 min 0 min 0 W/m 12,9 km/h (3 Bft) 98,00 %
25.12.2021 23:10 -1,7 C -2,2 C -3,9 C 84 % 1009,1 hPa 0,0 l/m 0 min 0 min 0 W/m 16,1 km/h (3 Bft) 97,87 %
25.12.2021 23:12 -1,7 C -2,2 C -3,9 C 84 % 1009,1 hPa 0,0 l/m 0 min 0 min 0 W/m 12,9 km/h (3 Bft) 97,83 %
25.12.2021 23:14 -1,7 C -2,2 C -3,9 C 84 % 1009,1 hPa 0,0 l/m 0 min 0 min 0 W/m 9,7 km/h (2 Bft) 95,92 %
25.12.2021 23:16 -1,7 C -2,2 C -3,9 C 84 % 1009,0 hPa 0,0 l/m 0 min 0 min 0 W/m 9,7 km/h (2 Bft) 97,87 %
25.12.2021 23:18 -1,7 C -2,2 C -3,9 C 85 % 1009,0 hPa 0,0 l/m 0 min 0 min 0 W/m 12,9 km/h (3 Bft) 97,87 %
25.12.2021 23:20 -1,7 C -2,2 C -3,9 C 85 % 1009,0 hPa 0,0 l/m 0 min 0 min 0 W/m 9,7 km/h (2 Bft) 97,87 %
25.12.2021 23:22 -1,7 C -2,2 C -3,9 C 85 % 1009,0 hPa 0,0 l/m 0 min 0 min 0 W/m 12,9 km/h (3 Bft) 97,87 %
25.12.2021 23:24 -1,7 C -2,2 C -3,9 C 85 % 1009,0 hPa 0,0 l/m 0 min 0 min 0 W/m 9,7 km/h (2 Bft) 95,74 %
25.12.2021 23:26 -1,7 C -2,2 C -3,9 C 85 % 1009,0 hPa 0,0 l/m 0 min 0 min 0 W/m 16,1 km/h (3 Bft) 97,83 %
25.12.2021 23:28 -1,7 C -2,2 C -3,9 C 85 % 1009,0 hPa 0,0 l/m 0 min 0 min 0 W/m 6,4 km/h (2 Bft) 97,87 %
25.12.2021 23:30 -1,7 C -2,2 C -3,3 C 85 % 1009,0 hPa 0,0 l/m 0 min 0 min 0 W/m 12,9 km/h (3 Bft) 97,87 %
25.12.2021 23:32 -1,6 C -2,2 C -3,3 C 85 % 1009,0 hPa 0,0 l/m 0 min 0 min 0 W/m 6,4 km/h (2 Bft) 100,00 %
25.12.2021 23:34 -1,7 C -2,2 C -3,3 C 85 % 1008,9 hPa 0,0 l/m 0 min 0 min 0 W/m 9,7 km/h (2 Bft) 100,00 %
25.12.2021 23:36 -1,6 C -2,2 C -3,3 C 85 % 1008,9 hPa 0,0 l/m 0 min 0 min 0 W/m 9,7 km/h (2 Bft) 100,00 %
25.12.2021 23:38 -1,6 C -2,2 C -3,3 C 86 % 1009,0 hPa 0,0 l/m 0 min 0 min 0 W/m 9,7 km/h (2 Bft) 100,00 %
25.12.2021 23:40 -1,6 C -2,2 C -3,3 C 86 % 1009,0 hPa 0,0 l/m 0 min 0 min 0 W/m 12,9 km/h (3 Bft) 100,00 %
25.12.2021 23:42 -1,6 C -2,2 C -3,3 C 86 % 1009,0 hPa 0,0 l/m 0 min 0 min 0 W/m 6,4 km/h (2 Bft) 100,00 %
25.12.2021 23:44 -1,6 C -2,2 C -3,3 C 85 % 1009,0 hPa 0,0 l/m 0 min 0 min 0 W/m 6,4 km/h (2 Bft) 97,87 %
25.12.2021 23:46 -1,6 C -1,7 C -3,3 C 86 % 1009,0 hPa 0,0 l/m 0 min 0 min 0 W/m 9,7 km/h (2 Bft) 93,62 %
25.12.2021 23:48 -1,6 C -1,7 C -3,3 C 86 % 1008,9 hPa 0,0 l/m 0 min 0 min 0 W/m 6,4 km/h (2 Bft) 100,00 %
25.12.2021 23:50 -1,6 C -1,7 C -3,3 C 86 % 1008,9 hPa 0,0 l/m 0 min 0 min 0 W/m 6,4 km/h (2 Bft) 100,00 %
25.12.2021 23:52 -1,6 C -1,7 C -3,3 C 86 % 1008,9 hPa 0,0 l/m 0 min 0 min 0 W/m 6,4 km/h (2 Bft) 97,83 %
25.12.2021 23:54 -1,6 C -1,7 C -3,3 C 86 % 1008,9 hPa 0,0 l/m 0 min 0 min 0 W/m 6,4 km/h (2 Bft) 97,87 %
25.12.2021 23:56 -1,6 C -1,7 C -3,3 C 86 % 1009,0 hPa 0,0 l/m 0 min 0 min 0 W/m 9,7 km/h (2 Bft) 97,87 %
25.12.2021 23:58 -1,6 C -1,7 C -3,3 C 86 % 1009,0 hPa 0,0 l/m 0 min 0 min 0 W/m 12,9 km/h (3 Bft) 97,87 %
_ Min-Zeit 23:08 20:56 23:10 22:00 01:06 - - - - 00:02 20:10
Minimum _ -1,7 C -2,2 C -3,9 C 84 % 1005,0 hPa - - - - 3,2 km/h (1 Bft) 37,50 %
_ Max-Zeit 00:00 00:00 00:00 00:00 18:48 05:06 15:20 06:08 13:12 07:00 00:04
Maximum _ 5,6 C 5,0 C 3,9 C 98 % 1009,6 hPa 0,2 l/m 2 min 4 min 109 W/m 38,6 km/h
N-NO (5 Bft)
100,00 %
Durchschnitt _ 1,0 C 0,6 C -0,3 C 93 % 1007,6 hPa #4,4 l/m #10 min. #3:56 h 52 W/m 14,0 km/h (3 Bft) 96,92 %
© 2021 W. Hausmann